Wetterdaten: Freitag, 25.11.2016
Datum Zeit Temp. Aussen Temp. o. S. +5cm Feuchte Auss BlattFeu 1 Luftdruck Regen Sonnenschein Regendauer Solar Windben Empfang
25.11.2016 00:00 5,1 C 5,0 C 3,3 C 90 % 0 lf 1020,4 hPa 0,0 l/m 0 min 0 min 0 W/m 23,0 km/h (4 Bft) 95,74 %
25.11.2016 00:02 5,1 C 5,0 C 3,3 C 90 % 0 lf 1020,5 hPa 0,0 l/m 0 min 0 min 0 W/m 23,0 km/h (4 Bft) 100,00 %
25.11.2016 00:05 5,1 C 5,0 C 3,3 C 90 % 0 lf 1020,5 hPa 0,0 l/m 0 min 0 min 0 W/m 29,3 km/h (5 Bft) 94,37 %
25.11.2016 00:06 5,1 C 5,0 C 3,3 C 90 % 0 lf 1020,5 hPa 0,0 l/m 0 min 0 min 0 W/m 23,0 km/h (4 Bft) 95,83 %
25.11.2016 00:08 5,1 C 5,0 C 3,3 C 90 % 0 lf 1020,5 hPa 0,0 l/m 0 min 0 min 0 W/m 23,0 km/h (4 Bft) 95,65 %
25.11.2016 00:10 5,1 C 5,0 C 3,3 C 90 % 0 lf 1020,5 hPa 0,0 l/m 0 min 0 min 0 W/m 20,9 km/h (4 Bft) 95,74 %
25.11.2016 00:12 5,1 C 5,0 C 3,3 C 90 % 0 lf 1020,6 hPa 0,0 l/m 0 min 0 min 0 W/m 23,0 km/h (4 Bft) 97,87 %
25.11.2016 00:14 5,1 C 5,0 C 3,3 C 90 % 0 lf 1020,4 hPa 0,0 l/m 0 min 0 min 0 W/m 25,1 km/h (4 Bft) 95,74 %
25.11.2016 00:16 5,1 C 5,0 C 3,3 C 90 % 0 lf 1020,3 hPa 0,0 l/m 0 min 0 min 0 W/m 31,4 km/h (5 Bft) 97,87 %
25.11.2016 00:18 5,1 C 5,0 C 3,3 C 90 % 0 lf 1020,3 hPa 0,0 l/m 0 min 0 min 0 W/m 25,1 km/h (4 Bft) 97,87 %
25.11.2016 00:20 5,1 C 5,0 C 3,3 C 90 % 0 lf 1020,3 hPa 0,0 l/m 0 min 0 min 0 W/m 23,0 km/h (4 Bft) 95,65 %
25.11.2016 00:22 5,1 C 5,0 C 3,3 C 90 % 0 lf 1020,3 hPa 0,0 l/m 0 min 0 min 0 W/m 20,9 km/h (4 Bft) 97,87 %
25.11.2016 00:24 5,0 C 5,0 C 3,3 C 90 % 0 lf 1020,3 hPa 0,0 l/m 0 min 0 min 0 W/m 18,8 km/h (3 Bft) 95,74 %
25.11.2016 00:26 5,0 C 5,0 C 3,3 C 90 % 0 lf 1020,2 hPa 0,0 l/m 0 min 0 min 0 W/m 20,9 km/h (4 Bft) 95,74 %
25.11.2016 00:28 5,0 C 5,0 C 3,3 C 90 % 0 lf 1020,3 hPa 0,0 l/m 0 min 0 min 0 W/m 20,9 km/h (4 Bft) 97,87 %
25.11.2016 00:30 5,0 C 5,0 C 3,3 C 90 % 0 lf 1020,3 hPa 0,0 l/m 0 min 0 min 0 W/m 18,8 km/h (3 Bft) 95,74 %
25.11.2016 00:32 5,0 C 5,0 C 3,3 C 90 % 0 lf 1020,3 hPa 0,0 l/m 0 min 0 min 0 W/m 18,8 km/h (3 Bft) 95,65 %
25.11.2016 00:34 5,0 C 5,0 C 3,3 C 90 % 0 lf 1020,2 hPa 0,0 l/m 0 min 0 min 0 W/m 18,8 km/h (3 Bft) 97,87 %
25.11.2016 00:36 4,9 C 5,0 C 3,3 C 90 % 0 lf 1020,2 hPa 0,0 l/m 0 min 0 min 0 W/m 16,7 km/h (3 Bft) 97,87 %
25.11.2016 00:38 4,9 C 5,0 C 3,3 C 90 % 0 lf 1020,2 hPa 0,0 l/m 0 min 0 min 1 W/m 18,8 km/h (3 Bft) 97,87 %
25.11.2016 00:40 4,9 C 5,0 C 3,3 C 90 % 0 lf 1020,2 hPa 0,0 l/m 0 min 0 min 2 W/m 23,0 km/h (4 Bft) 100,00 %
25.11.2016 00:42 4,9 C 5,0 C 3,3 C 90 % 0 lf 1020,2 hPa 0,0 l/m 0 min 0 min 0 W/m 23,0 km/h (4 Bft) 100,00 %
25.11.2016 00:44 4,9 C 5,0 C 3,3 C 90 % 0 lf 1020,2 hPa 0,0 l/m 0 min 0 min 0 W/m 20,9 km/h (4 Bft) 97,83 %
25.11.2016 00:46 4,9 C 5,0 C 3,3 C 90 % 0 lf 1020,3 hPa 0,0 l/m 0 min 0 min 0 W/m 23,0 km/h (4 Bft) 95,74 %
25.11.2016 00:48 4,9 C 5,0 C 3,3 C 90 % 0 lf 1020,3 hPa 0,0 l/m 0 min 0 min 0 W/m 23,0 km/h (4 Bft) 100,00 %
25.11.2016 00:50 4,9 C 5,0 C 3,3 C 90 % 0 lf 1020,3 hPa 0,0 l/m 0 min 0 min 0 W/m 18,8 km/h (3 Bft) 97,87 %
25.11.2016 00:52 4,8 C 4,4 C 3,3 C 90 % 0 lf 1020,3 hPa 0,0 l/m 0 min 0 min 0 W/m 16,7 km/h (3 Bft) 97,87 %
25.11.2016 00:54 4,8 C 5,0 C 3,3 C 90 % 0 lf 1020,3 hPa 0,0 l/m 0 min 0 min 0 W/m 29,3 km/h (5 Bft) 95,74 %
25.11.2016 00:56 4,8 C 5,0 C 3,3 C 90 % 0 lf 1020,4 hPa 0,0 l/m 0 min 0 min 0 W/m 29,3 km/h (5 Bft) 95,65 %
25.11.2016 00:58 4,8 C 5,0 C 3,3 C 90 % 0 lf 1020,2 hPa 0,0 l/m 0 min 0 min 0 W/m 20,9 km/h (4 Bft) 97,87 %
25.11.2016 01:00 4,8 C 4,4 C 3,3 C 90 % 0 lf 1020,3 hPa 0,0 l/m 0 min 0 min 0 W/m 29,3 km/h (5 Bft) 97,87 %
25.11.2016 01:02 4,8 C 4,4 C 3,3 C 90 % 0 lf 1020,3 hPa 0,0 l/m 0 min 0 min 0 W/m 27,2 km/h (4 Bft) 95,74 %
25.11.2016 01:04 4,8 C 4,4 C 3,3 C 91 % 0 lf 1020,4 hPa 0,0 l/m 0 min 0 min 0 W/m 20,9 km/h (4 Bft) 95,74 %
25.11.2016 01:06 4,8 C 4,4 C 3,3 C 91 % 0 lf 1020,4 hPa 0,0 l/m 0 min 0 min 0 W/m 25,1 km/h (4 Bft) 95,74 %
25.11.2016 01:08 4,8 C 4,4 C 3,3 C 91 % 0 lf 1020,5 hPa 0,0 l/m 0 min 0 min 3 W/m 27,2 km/h (4 Bft) 95,65 %
25.11.2016 01:10 4,8 C 4,4 C 3,3 C 91 % 0 lf 1020,5 hPa 0,0 l/m 0 min 0 min 1 W/m 20,9 km/h (4 Bft) 91,49 %
25.11.2016 01:12 4,8 C 4,4 C 3,3 C 91 % 0 lf 1020,4 hPa 0,0 l/m 0 min 0 min 0 W/m 23,0 km/h (4 Bft) 93,62 %
25.11.2016 01:14 4,7 C 4,4 C 3,3 C 91 % 0 lf 1020,4 hPa 0,0 l/m 0 min 0 min 0 W/m 25,1 km/h (4 Bft) 95,74 %
25.11.2016 01:16 4,7 C 4,4 C 3,3 C 91 % 0 lf 1020,4 hPa 0,0 l/m 0 min 0 min 0 W/m 20,9 km/h (4 Bft) 93,62 %
25.11.2016 01:18 4,7 C 4,4 C 2,8 C 91 % 0 lf 1020,4 hPa 0,0 l/m 0 min 0 min 0 W/m 23,0 km/h (4 Bft) 93,62 %
25.11.2016 01:20 4,7 C 4,4 C 3,3 C 91 % 0 lf 1020,5 hPa 0,0 l/m 0 min 0 min 2 W/m 23,0 km/h (4 Bft) 100,00 %
25.11.2016 01:22 4,7 C 4,4 C 3,3 C 91 % 0 lf 1020,4 hPa 0,0 l/m 0 min 0 min 0 W/m 31,4 km/h (5 Bft) 92,16 %
25.11.2016 01:24 4,7 C 4,4 C 3,3 C 91 % 0 lf 1020,4 hPa 0,0 l/m 0 min 0 min 0 W/m 20,9 km/h (4 Bft) 95,74 %
25.11.2016 01:26 4,7 C 4,4 C 3,3 C 91 % 0 lf 1020,5 hPa 0,0 l/m 0 min 0 min 2 W/m 14,6 km/h (3 Bft) 95,74 %
25.11.2016 01:28 4,7 C 4,4 C 2,8 C 91 % 0 lf 1020,5 hPa 0,0 l/m 0 min 0 min 0 W/m 18,8 km/h (3 Bft) 93,62 %
25.11.2016 01:30 4,7 C 4,4 C 3,3 C 91 % 0 lf 1020,4 hPa 0,0 l/m 0 min 0 min 0 W/m 31,4 km/h (5 Bft) 95,74 %
25.11.2016 01:32 4,7 C 4,4 C 3,3 C 91 % 0 lf 1020,4 hPa 0,0 l/m 0 min 0 min 0 W/m 16,7 km/h (3 Bft) 95,65 %
25.11.2016 01:34 4,7 C 4,4 C 3,3 C 91 % 0 lf 1020,4 hPa 0,0 l/m 0 min 0 min 0 W/m 16,7 km/h (3 Bft) 93,62 %
25.11.2016 01:36 4,7 C 4,4 C 3,3 C 91 % 0 lf 1020,5 hPa 0,0 l/m 0 min 0 min 0 W/m 16,7 km/h (3 Bft) 93,62 %
25.11.2016 01:38 4,7 C 4,4 C 3,3 C 91 % 0 lf 1020,5 hPa 0,0 l/m 0 min 0 min 0 W/m 23,0 km/h (4 Bft) 95,74 %
25.11.2016 01:40 4,7 C 4,4 C 3,3 C 91 % 0 lf 1020,5 hPa 0,0 l/m 0 min 0 min 0 W/m 20,9 km/h (4 Bft) 97,87 %
25.11.2016 01:42 4,7 C 5,0 C 3,3 C 91 % 0 lf 1020,5 hPa 0,0 l/m 0 min 0 min 0 W/m 25,1 km/h (4 Bft) 93,62 %
25.11.2016 01:44 4,7 C 5,0 C 3,3 C 91 % 0 lf 1020,5 hPa 0,0 l/m 0 min 0 min 0 W/m 27,2 km/h (4 Bft) 97,83 %
25.11.2016 01:46 4,7 C 5,0 C 3,3 C 91 % 0 lf 1020,4 hPa 0,0 l/m 0 min 0 min 0 W/m 25,1 km/h (4 Bft) 95,74 %
25.11.2016 01:48 4,7 C 5,0 C 3,3 C 91 % 0 lf 1020,5 hPa 0,0 l/m 0 min 0 min 0 W/m 29,3 km/h (5 Bft) 91,49 %
25.11.2016 01:50 4,7 C 5,0 C 3,3 C 91 % 0 lf 1020,3 hPa 0,0 l/m 0 min 0 min 0 W/m 29,3 km/h (5 Bft) 95,74 %
25.11.2016 01:52 4,7 C 5,0 C 3,3 C 92 % 0 lf 1020,3 hPa 0,0 l/m 0 min 0 min 0 W/m 25,1 km/h (4 Bft) 93,62 %
25.11.2016 01:54 4,7 C 5,0 C 3,3 C 92 % 0 lf 1020,3 hPa 0,0 l/m 0 min 0 min 0 W/m 20,9 km/h (4 Bft) 95,74 %
25.11.2016 01:56 4,7 C 5,0 C 3,3 C 92 % 0 lf 1020,4 hPa 0,0 l/m 0 min 0 min 0 W/m 20,9 km/h (4 Bft) 91,30 %
25.11.2016 01:58 4,7 C 5,0 C 3,3 C 92 % 0 lf 1020,4 hPa 0,0 l/m 0 min 0 min 0 W/m 23,0 km/h (4 Bft) 93,62 %
25.11.2016 02:00 4,7 C 5,0 C 3,3 C 92 % 0 lf 1020,4 hPa 0,0 l/m 0 min 0 min 0 W/m 18,8 km/h (3 Bft) 95,74 %
25.11.2016 02:02 4,7 C 5,0 C 3,3 C 92 % 0 lf 1020,4 hPa 0,0 l/m 0 min 0 min 0 W/m 27,2 km/h (4 Bft) 91,49 %
25.11.2016 02:04 4,7 C 5,0 C 3,3 C 92 % 0 lf 1020,4 hPa 0,0 l/m 0 min 0 min 0 W/m 20,9 km/h (4 Bft) 91,49 %
25.11.2016 02:06 4,7 C 5,0 C 3,3 C 92 % 0 lf 1020,5 hPa 0,0 l/m 0 min 0 min 0 W/m 20,9 km/h (4 Bft) 91,30 %
25.11.2016 02:08 4,8 C 5,0 C 3,3 C 92 % 0 lf 1020,5 hPa 0,0 l/m 0 min 0 min 0 W/m 18,8 km/h (3 Bft) 89,36 %
25.11.2016 02:10 4,8 C 5,0 C 3,3 C 92 % 0 lf 1020,4 hPa 0,0 l/m 0 min 0 min 0 W/m 14,6 km/h (3 Bft) 93,62 %
25.11.2016 02:12 4,8 C 4,4 C 3,3 C 92 % 0 lf 1020,4 hPa 0,0 l/m 0 min 0 min 0 W/m 25,1 km/h (4 Bft) 93,62 %
25.11.2016 02:14 4,8 C 4,4 C 3,3 C 92 % 0 lf 1020,4 hPa 0,0 l/m 0 min 0 min 0 W/m 20,9 km/h (4 Bft) 93,62 %
25.11.2016 02:16 4,8 C 4,4 C 3,3 C 92 % 0 lf 1020,4 hPa 0,0 l/m 0 min 0 min 0 W/m 18,8 km/h (3 Bft) 89,36 %
25.11.2016 02:18 4,7 C 4,4 C 3,3 C 92 % 0 lf 1020,2 hPa 0,0 l/m 0 min 0 min 2 W/m 23,0 km/h (4 Bft) 93,48 %
25.11.2016 02:20 4,7 C 4,4 C 3,3 C 92 % 0 lf 1020,3 hPa 0,0 l/m 0 min 0 min 0 W/m 25,1 km/h (4 Bft) 93,62 %
25.11.2016 02:22 4,7 C 4,4 C 2,8 C 92 % 0 lf 1020,2 hPa 0,0 l/m 0 min 0 min 0 W/m 16,7 km/h (3 Bft) 95,74 %
25.11.2016 02:24 4,7 C 4,4 C 2,8 C 92 % 0 lf 1020,2 hPa 0,0 l/m 0 min 0 min 0 W/m 20,9 km/h (4 Bft) 89,36 %
25.11.2016 02:26 4,7 C 4,4 C 2,8 C 92 % 0 lf 1020,1 hPa 0,0 l/m 0 min 0 min 0 W/m 27,2 km/h (4 Bft) 95,74 %
25.11.2016 02:28 4,7 C 4,4 C 2,8 C 92 % 0 lf 1020,1 hPa 0,0 l/m 0 min 0 min 0 W/m 18,8 km/h (3 Bft) 93,62 %
25.11.2016 02:30 4,7 C 4,4 C 2,8 C 92 % 0 lf 1020,2 hPa 0,0 l/m 0 min 0 min 0 W/m 18,8 km/h (3 Bft) 95,65 %
25.11.2016 02:32 4,7 C 4,4 C 2,8 C 92 % 0 lf 1020,1 hPa 0,0 l/m 0 min 0 min 0 W/m 20,9 km/h (4 Bft) 89,36 %
25.11.2016 02:34 4,7 C 4,4 C 2,8 C 92 % 0 lf 1020,0 hPa 0,0 l/m 0 min 0 min 0 W/m 20,9 km/h (4 Bft) 93,62 %
25.11.2016 02:36 4,6 C 4,4 C 2,8 C 92 % 0 lf 1020,0 hPa 0,0 l/m 0 min 0 min 0 W/m 25,1 km/h (4 Bft) 93,62 %
25.11.2016 02:38 4,6 C 4,4 C 2,8 C 92 % 0 lf 1020,0 hPa 0,0 l/m 0 min 0 min 0 W/m 20,9 km/h (4 Bft) 93,62 %
25.11.2016 02:40 4,6 C 4,4 C 2,8 C 92 % 0 lf 1019,9 hPa 0,0 l/m 0 min 0 min 0 W/m 23,0 km/h (4 Bft) 91,49 %
25.11.2016 02:42 4,6 C 4,4 C 2,8 C 92 % 0 lf 1019,8 hPa 0,0 l/m 0 min 0 min 0 W/m 23,0 km/h (4 Bft) 95,65 %
25.11.2016 02:44 4,6 C 4,4 C 2,8 C 92 % 0 lf 1019,8 hPa 0,0 l/m 0 min 0 min 0 W/m 27,2 km/h (4 Bft) 100,00 %
25.11.2016 02:46 4,6 C 4,4 C 2,8 C 92 % 0 lf 1019,8 hPa 0,0 l/m 0 min 0 min 0 W/m 20,9 km/h (4 Bft) 97,87 %
25.11.2016 02:48 4,6 C 4,4 C 2,8 C 92 % 0 lf 1019,8 hPa 0,0 l/m 0 min 0 min 0 W/m 29,3 km/h (5 Bft) 91,49 %
25.11.2016 02:50 4,6 C 4,4 C 2,8 C 92 % 0 lf 1019,6 hPa 0,0 l/m 0 min 0 min 0 W/m 25,1 km/h (4 Bft) 97,87 %
25.11.2016 02:52 4,5 C 4,4 C 2,8 C 92 % 0 lf 1019,6 hPa 0,0 l/m 0 min 0 min 0 W/m 20,9 km/h (4 Bft) 97,87 %
25.11.2016 02:54 4,5 C 4,4 C 2,8 C 92 % 0 lf 1019,6 hPa 0,0 l/m 0 min 0 min 0 W/m 23,0 km/h (4 Bft) 100,00 %
25.11.2016 02:56 4,5 C 4,4 C 2,8 C 92 % 0 lf 1019,6 hPa 0,0 l/m 0 min 0 min 0 W/m 27,2 km/h (4 Bft) 95,74 %
25.11.2016 02:58 4,5 C 4,4 C 2,8 C 92 % 0 lf 1019,6 hPa 0,0 l/m 0 min 0 min 0 W/m 23,0 km/h (4 Bft) 100,00 %
25.11.2016 03:00 4,4 C 4,4 C 2,8 C 92 % 0 lf 1019,6 hPa 0,0 l/m 0 min 0 min 0 W/m 23,0 km/h (4 Bft) 95,74 %
25.11.2016 03:02 4,4 C 4,4 C 2,8 C 92 % 0 lf 1019,6 hPa 0,0 l/m 0 min 0 min 0 W/m 25,1 km/h (4 Bft) 100,00 %
25.11.2016 03:04 4,4 C 4,4 C 2,8 C 92 % 0 lf 1019,6 hPa 0,0 l/m 0 min 0 min 0 W/m 16,7 km/h (3 Bft) 100,00 %
25.11.2016 03:06 4,4 C 4,4 C 2,8 C 92 % 0 lf 1019,6 hPa 0,0 l/m 0 min 0 min 0 W/m 14,6 km/h (3 Bft) 100,00 %
25.11.2016 03:08 4,4 C 4,4 C 2,8 C 92 % 0 lf 1019,8 hPa 0,0 l/m 0 min 0 min 0 W/m 20,9 km/h (4 Bft) 97,87 %
25.11.2016 03:10 4,4 C 3,9 C 2,8 C 92 % 0 lf 1019,9 hPa 0,0 l/m 0 min 0 min 0 W/m 18,8 km/h (3 Bft) 100,00 %
25.11.2016 03:12 4,3 C 3,9 C 2,8 C 92 % 0 lf 1019,9 hPa 0,0 l/m 0 min 0 min 0 W/m 20,9 km/h (4 Bft) 97,87 %
25.11.2016 03:14 4,3 C 3,9 C 2,8 C 92 % 0 lf 1020,0 hPa 0,0 l/m 0 min 0 min 0 W/m 25,1 km/h (4 Bft) 97,87 %
25.11.2016 03:16 4,3 C 3,9 C 2,8 C 92 % 0 lf 1020,0 hPa 0,0 l/m 0 min 0 min 0 W/m 27,2 km/h (4 Bft) 95,65 %
25.11.2016 03:18 4,3 C 4,4 C 2,8 C 92 % 0 lf 1020,0 hPa 0,0 l/m 0 min 0 min 0 W/m 25,1 km/h (4 Bft) 100,00 %
25.11.2016 03:20 4,3 C 3,9 C 2,8 C 92 % 0 lf 1020,0 hPa 0,0 l/m 0 min 0 min 0 W/m 23,0 km/h (4 Bft) 97,87 %
25.11.2016 03:22 4,3 C 4,4 C 2,8 C 92 % 0 lf 1020,0 hPa 0,0 l/m 0 min 0 min 0 W/m 18,8 km/h (3 Bft) 95,74 %
25.11.2016 03:24 4,3 C 4,4 C 2,8 C 92 % 0 lf 1020,1 hPa 0,0 l/m 0 min 0 min 0 W/m 27,2 km/h (4 Bft) 97,87 %
25.11.2016 03:26 4,3 C 4,4 C 2,8 C 92 % 0 lf 1020,0 hPa 0,0 l/m 0 min 0 min 0 W/m 27,2 km/h (4 Bft) 97,87 %
25.11.2016 03:28 4,3 C 4,4 C 2,8 C 92 % 0 lf 1020,0 hPa 0,0 l/m 0 min 0 min 0 W/m 23,0 km/h (4 Bft) 97,87 %
25.11.2016 03:30 4,3 C 3,9 C 2,8 C 92 % 0 lf 1019,9 hPa 0,0 l/m 0 min 0 min 0 W/m 23,0 km/h (4 Bft) 97,83 %
25.11.2016 03:32 4,3 C 3,9 C 2,8 C 92 % 0 lf 1019,9 hPa 0,0 l/m 0 min 0 min 0 W/m 23,0 km/h (4 Bft) 93,62 %
25.11.2016 03:34 4,2 C 3,9 C 2,8 C 92 % 0 lf 1019,9 hPa 0,0 l/m 0 min 0 min 0 W/m 25,1 km/h (4 Bft) 97,87 %
25.11.2016 03:36 4,2 C 3,9 C 2,8 C 92 % 0 lf 1019,9 hPa 0,0 l/m 0 min 0 min 0 W/m 25,1 km/h (4 Bft) 97,87 %
25.11.2016 03:38 4,2 C 3,9 C 2,8 C 92 % 0 lf 1019,9 hPa 0,0 l/m 0 min 0 min 0 W/m 23,0 km/h (4 Bft) 97,87 %
25.11.2016 03:40 4,2 C 3,9 C 2,8 C 92 % 0 lf 1019,9 hPa 0,0 l/m 0 min 0 min 0 W/m 23,0 km/h (4 Bft) 97,83 %
25.11.2016 03:42 4,2 C 3,9 C 2,8 C 92 % 0 lf 1019,9 hPa 0,0 l/m 0 min 0 min 0 W/m 20,9 km/h (4 Bft) 93,62 %
25.11.2016 03:44 4,2 C 3,9 C 2,8 C 92 % 0 lf 1019,9 hPa 0,0 l/m 0 min 0 min 0 W/m 20,9 km/h (4 Bft) 91,49 %
25.11.2016 03:46 4,2 C 3,9 C 2,8 C 92 % 0 lf 1019,9 hPa 0,0 l/m 0 min 0 min 0 W/m 16,7 km/h (3 Bft) 93,62 %
25.11.2016 03:48 4,2 C 3,9 C 2,8 C 92 % 0 lf 1019,9 hPa 0,0 l/m 0 min 0 min 0 W/m 18,8 km/h (3 Bft) 97,87 %
25.11.2016 03:50 4,2 C 3,9 C 2,8 C 92 % 0 lf 1019,9 hPa 0,0 l/m 0 min 0 min 0 W/m 27,2 km/h (4 Bft) 97,87 %
25.11.2016 03:52 4,2 C 3,9 C 2,8 C 92 % 0 lf 1019,9 hPa 0,0 l/m 0 min 0 min 0 W/m 23,0 km/h (4 Bft) 93,48 %
25.11.2016 03:54 4,2 C 3,9 C 2,8 C 92 % 0 lf 1019,9 hPa 0,0 l/m 0 min 0 min 0 W/m 27,2 km/h (4 Bft) 95,74 %
25.11.2016 03:56 4,1 C 3,9 C 2,8 C 92 % 0 lf 1019,9 hPa 0,0 l/m 0 min 0 min 0 W/m 25,1 km/h (4 Bft) 93,62 %
25.11.2016 03:58 4,1 C 3,9 C 2,2 C 92 % 0 lf 1019,9 hPa 0,0 l/m 0 min 0 min 0 W/m 18,8 km/h (3 Bft) 95,74 %
25.11.2016 04:00 4,1 C 3,9 C 2,2 C 92 % 0 lf 1019,8 hPa 0,0 l/m 0 min 0 min 0 W/m 23,0 km/h (4 Bft) 95,74 %
25.11.2016 04:05 4,1 C 3,9 C 2,2 C 92 % 0 lf 1019,7 hPa 0,0 l/m 0 min 0 min 0 W/m 18,8 km/h (3 Bft) 100,00 %
25.11.2016 04:06 4,1 C 3,9 C 2,2 C 92 % 0 lf 1019,7 hPa 0,0 l/m 0 min 0 min 0 W/m 16,7 km/h (3 Bft) 91,30 %
25.11.2016 04:08 4,1 C 3,9 C 2,2 C 92 % 0 lf 1019,6 hPa 0,0 l/m 0 min 0 min 0 W/m 25,1 km/h (4 Bft) 93,62 %
25.11.2016 04:10 4,1 C 3,9 C 2,2 C 92 % 0 lf 1019,5 hPa 0,0 l/m 0 min 0 min 0 W/m 16,7 km/h (3 Bft) 91,49 %
25.11.2016 04:12 4,0 C 3,9 C 2,2 C 92 % 0 lf 1019,6 hPa 0,0 l/m 0 min 0 min 0 W/m 18,8 km/h (3 Bft) 97,87 %
25.11.2016 04:14 4,0 C 3,9 C 2,2 C 92 % 0 lf 1019,5 hPa 0,0 l/m 0 min 0 min 0 W/m 18,8 km/h (3 Bft) 95,74 %
25.11.2016 04:16 4,0 C 3,9 C 2,2 C 92 % 0 lf 1019,6 hPa 0,0 l/m 0 min 0 min 0 W/m 18,8 km/h (3 Bft) 100,00 %
25.11.2016 04:18 4,0 C 3,9 C 2,2 C 92 % 0 lf 1019,5 hPa 0,0 l/m 0 min 0 min 0 W/m 18,8 km/h (3 Bft) 97,87 %
25.11.2016 04:20 3,9 C 3,9 C 2,2 C 92 % 0 lf 1019,4 hPa 0,0 l/m 0 min 0 min 0 W/m 16,7 km/h (3 Bft) 97,87 %
25.11.2016 04:22 3,9 C 3,9 C 2,2 C 92 % 0 lf 1019,4 hPa 0,0 l/m 0 min 0 min 0 W/m 18,8 km/h (3 Bft) 97,87 %
25.11.2016 04:24 3,9 C 3,9 C 2,2 C 92 % 0 lf 1019,5 hPa 0,0 l/m 0 min 0 min 0 W/m 12,6 km/h (3 Bft) 100,00 %
25.11.2016 04:26 3,9 C 3,9 C 2,2 C 92 % 0 lf 1019,4 hPa 0,0 l/m 0 min 0 min 0 W/m 18,8 km/h (3 Bft) 97,87 %
25.11.2016 04:28 3,9 C 3,9 C 2,2 C 92 % 0 lf 1019,3 hPa 0,0 l/m 0 min 0 min 0 W/m 14,6 km/h (3 Bft) 95,65 %
25.11.2016 04:30 3,9 C 3,9 C 2,2 C 92 % 0 lf 1019,3 hPa 0,0 l/m 0 min 0 min 0 W/m 18,8 km/h (3 Bft) 97,87 %
25.11.2016 04:32 3,8 C 3,9 C 2,2 C 92 % 0 lf 1019,3 hPa 0,0 l/m 0 min 0 min 0 W/m 23,0 km/h (4 Bft) 100,00 %
25.11.2016 04:34 3,8 C 3,9 C 2,2 C 92 % 0 lf 1019,3 hPa 0,0 l/m 0 min 0 min 0 W/m 18,8 km/h (3 Bft) 100,00 %
25.11.2016 04:36 3,8 C 3,9 C 2,2 C 92 % 0 lf 1019,4 hPa 0,0 l/m 0 min 0 min 2 W/m 16,7 km/h (3 Bft) 100,00 %
25.11.2016 04:38 3,8 C 3,9 C 2,2 C 92 % 0 lf 1019,3 hPa 0,0 l/m 0 min 0 min 5 W/m 12,6 km/h (3 Bft) 100,00 %
25.11.2016 04:40 3,8 C 3,3 C 2,2 C 92 % 0 lf 1019,3 hPa 0,0 l/m 0 min 0 min 5 W/m 14,6 km/h (3 Bft) 95,74 %
25.11.2016 04:42 3,8 C 3,3 C 2,2 C 92 % 0 lf 1019,3 hPa 0,0 l/m 0 min 0 min 5 W/m 16,7 km/h (3 Bft) 97,87 %
25.11.2016 04:44 3,7 C 3,3 C 2,2 C 92 % 0 lf 1019,4 hPa 0,0 l/m 0 min 0 min 0 W/m 20,9 km/h (4 Bft) 100,00 %
25.11.2016 04:46 3,7 C 3,3 C 2,2 C 92 % 0 lf 1019,5 hPa 0,0 l/m 0 min 0 min 0 W/m 20,9 km/h (4 Bft) 93,62 %
25.11.2016 04:48 3,7 C 3,3 C 2,2 C 93 % 0 lf 1019,4 hPa 0,0 l/m 0 min 0 min 0 W/m 14,6 km/h (3 Bft) 97,87 %
25.11.2016 04:50 3,7 C 3,3 C 2,2 C 93 % 0 lf 1019,5 hPa 0,0 l/m 0 min 0 min 0 W/m 16,7 km/h (3 Bft) 97,83 %
25.11.2016 04:52 3,7 C 3,3 C 2,2 C 93 % 0 lf 1019,5 hPa 0,0 l/m 0 min 0 min 0 W/m 18,8 km/h (3 Bft) 95,74 %
25.11.2016 04:54 3,7 C 3,3 C 2,2 C 93 % 0 lf 1019,5 hPa 0,0 l/m 0 min 0 min 0 W/m 20,9 km/h (4 Bft) 95,74 %
25.11.2016 04:56 3,7 C 3,3 C 1,7 C 92 % 0 lf 1019,6 hPa 0,0 l/m 0 min 0 min 0 W/m 18,8 km/h (3 Bft) 95,74 %
25.11.2016 04:58 3,7 C 3,3 C 1,7 C 92 % 0 lf 1019,6 hPa 0,0 l/m 0 min 0 min 0 W/m 20,9 km/h (4 Bft) 95,74 %
25.11.2016 05:00 3,6 C 3,3 C 1,7 C 92 % 0 lf 1019,5 hPa 0,0 l/m 0 min 0 min 0 W/m 18,8 km/h (3 Bft) 93,62 %
25.11.2016 05:02 3,6 C 3,3 C 1,7 C 92 % 0 lf 1019,6 hPa 0,0 l/m 0 min 0 min 3 W/m 14,6 km/h (3 Bft) 95,65 %
25.11.2016 05:04 3,6 C 3,3 C 1,7 C 92 % 0 lf 1019,5 hPa 0,0 l/m 0 min 0 min 5 W/m 20,9 km/h (4 Bft) 95,74 %
25.11.2016 05:06 3,6 C 3,3 C 1,7 C 93 % 0 lf 1019,6 hPa 0,0 l/m 0 min 0 min 5 W/m 14,6 km/h (3 Bft) 97,87 %
25.11.2016 05:08 3,6 C 3,3 C 1,7 C 93 % 0 lf 1019,6 hPa 0,0 l/m 0 min 0 min 5 W/m 16,7 km/h (3 Bft) 95,74 %
25.11.2016 05:10 3,6 C 3,3 C 1,7 C 93 % 0 lf 1019,6 hPa 0,0 l/m 0 min 0 min 5 W/m 18,8 km/h (3 Bft) 95,74 %
25.11.2016 05:12 3,5 C 3,3 C 1,7 C 93 % 0 lf 1019,6 hPa 0,0 l/m 0 min 0 min 5 W/m 23,0 km/h (4 Bft) 97,87 %
25.11.2016 05:14 3,5 C 3,3 C 1,7 C 93 % 0 lf 1019,6 hPa 0,0 l/m 0 min 0 min 5 W/m 16,7 km/h (3 Bft) 97,83 %
25.11.2016 05:16 3,5 C 3,3 C 1,7 C 93 % 0 lf 1019,5 hPa 0,0 l/m 0 min 0 min 5 W/m 18,8 km/h (3 Bft) 97,87 %
25.11.2016 05:18 3,5 C 3,3 C 1,7 C 93 % 0 lf 1019,5 hPa 0,0 l/m 0 min 0 min 5 W/m 14,6 km/h (3 Bft) 93,62 %
25.11.2016 05:20 3,4 C 3,3 C 1,7 C 93 % 0 lf 1019,6 hPa 0,0 l/m 0 min 0 min 5 W/m 18,8 km/h (3 Bft) 93,62 %
25.11.2016 05:22 3,4 C 3,3 C 1,7 C 93 % 0 lf 1019,5 hPa 0,0 l/m 0 min 0 min 5 W/m 16,7 km/h (3 Bft) 97,87 %
25.11.2016 05:24 3,4 C 3,3 C 1,7 C 93 % 0 lf 1019,6 hPa 0,0 l/m 0 min 0 min 5 W/m 25,1 km/h (4 Bft) 97,87 %
25.11.2016 05:26 3,4 C 3,3 C 1,7 C 93 % 0 lf 1019,5 hPa 0,0 l/m 0 min 0 min 5 W/m 25,1 km/h (4 Bft) 93,48 %
25.11.2016 05:28 3,4 C 3,3 C 1,7 C 93 % 0 lf 1019,4 hPa 0,0 l/m 0 min 0 min 5 W/m 16,7 km/h (3 Bft) 95,74 %
25.11.2016 05:30 3,4 C 3,3 C 1,7 C 93 % 0 lf 1019,4 hPa 0,0 l/m 0 min 0 min 5 W/m 23,0 km/h (4 Bft) 95,74 %
25.11.2016 05:32 3,4 C 3,3 C 1,7 C 93 % 0 lf 1019,4 hPa 0,0 l/m 0 min 0 min 5 W/m 33,5 km/h (5 Bft) 93,62 %
25.11.2016 05:34 3,4 C 3,3 C 1,7 C 93 % 0 lf 1019,4 hPa 0,0 l/m 0 min 0 min 5 W/m 27,2 km/h (4 Bft) 93,62 %
25.11.2016 05:36 3,4 C 3,3 C 1,7 C 93 % 0 lf 1019,3 hPa 0,0 l/m 0 min 0 min 5 W/m 29,3 km/h (5 Bft) 93,62 %
25.11.2016 05:38 3,4 C 3,3 C 1,7 C 93 % 0 lf 1019,2 hPa 0,0 l/m 0 min 0 min 5 W/m 20,9 km/h (4 Bft) 91,30 %
25.11.2016 05:40 3,3 C 3,3 C 1,7 C 93 % 0 lf 1019,3 hPa 0,0 l/m 0 min 0 min 5 W/m 23,0 km/h (4 Bft) 94,00 %
25.11.2016 05:42 3,3 C 3,3 C 1,7 C 93 % 0 lf 1019,3 hPa 0,0 l/m 0 min 0 min 5 W/m 25,1 km/h (4 Bft) 93,62 %
25.11.2016 05:44 3,3 C 3,3 C 1,7 C 93 % 0 lf 1019,4 hPa 0,0 l/m 0 min 0 min 5 W/m 18,8 km/h (3 Bft) 95,74 %
25.11.2016 05:46 3,3 C 3,3 C 1,7 C 93 % 0 lf 1019,4 hPa 0,0 l/m 0 min 0 min 5 W/m 23,0 km/h (4 Bft) 91,49 %
25.11.2016 05:48 3,3 C 3,3 C 1,7 C 93 % 0 lf 1019,5 hPa 0,0 l/m 0 min 0 min 5 W/m 23,0 km/h (4 Bft) 95,65 %
25.11.2016 05:50 3,3 C 3,3 C 1,7 C 93 % 0 lf 1019,6 hPa 0,0 l/m 0 min 0 min 5 W/m 23,0 km/h (4 Bft) 89,36 %
25.11.2016 05:52 3,3 C 3,3 C 1,7 C 93 % 0 lf 1019,6 hPa 0,0 l/m 0 min 0 min 5 W/m 23,0 km/h (4 Bft) 95,74 %
25.11.2016 05:54 3,3 C 3,3 C 1,7 C 93 % 0 lf 1019,8 hPa 0,0 l/m 0 min 0 min 5 W/m 23,0 km/h (4 Bft) 91,49 %
25.11.2016 05:56 3,3 C 3,3 C 1,7 C 93 % 0 lf 1019,7 hPa 0,0 l/m 0 min 0 min 5 W/m 20,9 km/h (4 Bft) 93,62 %
25.11.2016 05:58 3,3 C 3,3 C 1,7 C 93 % 0 lf 1019,7 hPa 0,0 l/m 0 min 0 min 5 W/m 27,2 km/h (4 Bft) 95,74 %
25.11.2016 06:00 3,3 C 3,3 C 1,7 C 93 % 0 lf 1019,7 hPa 0,0 l/m 0 min 0 min 5 W/m 23,0 km/h (4 Bft) 91,30 %
25.11.2016 06:02 3,3 C 3,3 C 1,7 C 93 % 0 lf 1019,7 hPa 0,0 l/m 0 min 0 min 5 W/m 14,6 km/h (3 Bft) 91,49 %
25.11.2016 06:06 3,2 C 3,3 C 1,7 C 93 % 0 lf 1019,7 hPa 0,0 l/m 0 min 0 min 5 W/m 25,1 km/h (4 Bft) 91,49 %
25.11.2016 06:08 3,2 C 3,3 C 1,7 C 93 % 0 lf 1019,7 hPa 0,0 l/m 0 min 0 min 5 W/m 23,0 km/h (4 Bft) 91,49 %
25.11.2016 06:10 3,2 C 3,3 C 1,7 C 93 % 0 lf 1019,7 hPa 0,0 l/m 0 min 0 min 5 W/m 27,2 km/h (4 Bft) 85,11 %
25.11.2016 06:12 3,2 C 3,3 C 1,7 C 93 % 0 lf 1019,7 hPa 0,0 l/m 0 min 0 min 5 W/m 25,1 km/h (4 Bft) 91,30 %
25.11.2016 06:14 3,2 C 3,3 C 1,7 C 93 % 0 lf 1019,8 hPa 0,0 l/m 0 min 0 min 5 W/m 18,8 km/h (3 Bft) 93,62 %
25.11.2016 06:16 3,2 C 3,3 C 1,7 C 93 % 0 lf 1019,8 hPa 0,0 l/m 0 min 0 min 5 W/m 23,0 km/h (4 Bft) 93,62 %
25.11.2016 06:18 3,2 C 3,3 C 1,7 C 93 % 0 lf 1019,7 hPa 0,0 l/m 0 min 0 min 5 W/m 23,0 km/h (4 Bft) 97,87 %
25.11.2016 06:20 3,2 C 3,3 C 1,7 C 93 % 0 lf 1019,7 hPa 0,0 l/m 0 min 0 min 5 W/m 25,1 km/h (4 Bft) 97,87 %
25.11.2016 06:22 3,2 C 2,8 C 1,7 C 93 % 0 lf 1019,8 hPa 0,0 l/m 0 min 0 min 5 W/m 20,9 km/h (4 Bft) 89,13 %
25.11.2016 06:24 3,2 C 2,8 C 1,7 C 93 % 0 lf 1019,8 hPa 0,0 l/m 0 min 0 min 5 W/m 27,2 km/h (4 Bft) 93,62 %
25.11.2016 06:26 3,1 C 3,3 C 1,7 C 93 % 0 lf 1019,8 hPa 0,0 l/m 0 min 0 min 5 W/m 25,1 km/h (4 Bft) 89,36 %
25.11.2016 06:28 3,1 C 3,3 C 1,7 C 93 % 0 lf 1019,8 hPa 0,0 l/m 0 min 0 min 5 W/m 35,6 km/h (5 Bft) 91,49 %
25.11.2016 06:30 3,1 C 2,8 C 1,7 C 93 % 0 lf 1019,7 hPa 0,0 l/m 0 min 0 min 5 W/m 27,2 km/h (4 Bft) 91,49 %
25.11.2016 06:32 3,1 C 2,8 C 1,7 C 93 % 0 lf 1019,7 hPa 0,0 l/m 0 min 0 min 5 W/m 27,2 km/h (4 Bft) 91,49 %
25.11.2016 06:34 3,1 C 2,8 C 1,7 C 93 % 0 lf 1019,7 hPa 0,0 l/m 0 min 0 min 5 W/m 23,0 km/h (4 Bft) 95,65 %
25.11.2016 06:36 3,1 C 2,8 C 1,7 C 93 % 0 lf 1019,7 hPa 0,0 l/m 0 min 0 min 5 W/m 23,0 km/h (4 Bft) 95,74 %
25.11.2016 06:38 3,0 C 2,8 C 1,7 C 93 % 0 lf 1019,6 hPa 0,0 l/m 0 min 0 min 5 W/m 20,9 km/h (4 Bft) 95,74 %
25.11.2016 06:40 3,0 C 2,8 C 1,7 C 93 % 0 lf 1019,6 hPa 0,0 l/m 0 min 0 min 5 W/m 25,1 km/h (4 Bft) 93,62 %
25.11.2016 06:42 3,0 C 2,8 C 1,7 C 93 % 0 lf 1019,5 hPa 0,0 l/m 0 min 0 min 0 W/m 23,0 km/h (4 Bft) 93,62 %
25.11.2016 06:44 3,0 C 2,8 C 1,7 C 93 % 0 lf 1019,4 hPa 0,0 l/m 0 min 0 min 5 W/m 16,7 km/h (3 Bft) 100,00 %
25.11.2016 06:46 2,9 C 2,8 C 1,7 C 93 % 0 lf 1019,4 hPa 0,0 l/m 0 min 0 min 0 W/m 18,8 km/h (3 Bft) 100,00 %
25.11.2016 06:48 2,9 C 2,8 C 1,1 C 93 % 0 lf 1019,5 hPa 0,0 l/m 0 min 0 min 0 W/m 16,7 km/h (3 Bft) 100,00 %
25.11.2016 06:50 2,9 C 2,8 C 1,1 C 93 % 0 lf 1019,4 hPa 0,0 l/m 0 min 0 min 0 W/m 23,0 km/h (4 Bft) 93,62 %
25.11.2016 06:52 2,9 C 2,8 C 1,1 C 93 % 0 lf 1019,3 hPa 0,0 l/m 0 min 0 min 0 W/m 18,8 km/h (3 Bft) 100,00 %
25.11.2016 06:54 2,9 C 2,8 C 1,1 C 93 % 0 lf 1019,2 hPa 0,0 l/m 0 min 0 min 0 W/m 18,8 km/h (3 Bft) 100,00 %
25.11.2016 06:56 2,9 C 2,8 C 1,1 C 93 % 0 lf 1019,2 hPa 0,0 l/m 0 min 0 min 0 W/m 18,8 km/h (3 Bft) 100,00 %
25.11.2016 06:58 2,9 C 2,8 C 1,1 C 93 % 0 lf 1019,1 hPa 0,0 l/m 0 min 0 min 0 W/m 18,8 km/h (3 Bft) 100,00 %
25.11.2016 07:00 2,8 C 2,8 C 1,1 C 93 % 0 lf 1019,2 hPa 0,0 l/m 0 min 0 min 0 W/m 14,6 km/h (3 Bft) 95,74 %
25.11.2016 07:02 2,8 C 2,2 C 1,1 C 93 % 0 lf 1019,1 hPa 0,0 l/m 0 min 0 min 0 W/m 16,7 km/h (3 Bft) 97,87 %
25.11.2016 07:04 2,8 C 2,2 C 1,1 C 93 % 0 lf 1019,1 hPa 0,0 l/m 0 min 0 min 0 W/m 20,9 km/h (4 Bft) 100,00 %
25.11.2016 07:06 2,8 C 2,2 C 1,1 C 93 % 0 lf 1019,2 hPa 0,0 l/m 0 min 0 min 0 W/m 20,9 km/h (4 Bft) 85,11 %
25.11.2016 07:08 2,8 C 2,2 C 1,1 C 93 % 0 lf 1019,1 hPa 0,0 l/m 0 min 0 min 0 W/m 18,8 km/h (3 Bft) 100,00 %
25.11.2016 07:10 2,8 C 2,2 C 1,1 C 93 % 0 lf 1019,1 hPa 0,0 l/m 0 min 0 min 0 W/m 18,8 km/h (3 Bft) 100,00 %
25.11.2016 07:12 2,7 C 2,2 C 1,1 C 93 % 0 lf 1019,1 hPa 0,0 l/m 0 min 0 min 0 W/m 16,7 km/h (3 Bft) 97,87 %
25.11.2016 07:14 2,7 C 2,2 C 1,1 C 93 % 0 lf 1019,0 hPa 0,0 l/m 0 min 0 min 0 W/m 18,8 km/h (3 Bft) 95,74 %
25.11.2016 07:16 2,7 C 2,2 C 1,1 C 93 % 0 lf 1019,1 hPa 0,0 l/m 0 min 0 min 0 W/m 20,9 km/h (4 Bft) 93,62 %
25.11.2016 07:18 2,7 C 2,2 C 1,1 C 93 % 0 lf 1019,2 hPa 0,0 l/m 0 min 0 min 0 W/m 18,8 km/h (3 Bft) 87,23 %
25.11.2016 07:20 2,7 C 2,2 C 1,1 C 93 % 0 lf 1019,2 hPa 0,0 l/m 0 min 0 min 0 W/m 14,6 km/h (3 Bft) 97,87 %
25.11.2016 07:22 2,7 C 2,2 C 1,1 C 93 % 0 lf 1019,2 hPa 0,0 l/m 0 min 0 min 0 W/m 14,6 km/h (3 Bft) 100,00 %
25.11.2016 07:24 2,7 C 2,2 C 1,1 C 93 % 0 lf 1019,2 hPa 0,0 l/m 0 min 0 min 5 W/m 16,7 km/h (3 Bft) 95,74 %
25.11.2016 07:26 2,6 C 2,2 C 1,1 C 93 % 0 lf 1019,3 hPa 0,0 l/m 0 min 0 min 0 W/m 18,8 km/h (3 Bft) 93,62 %
25.11.2016 07:28 2,6 C 2,2 C 1,1 C 93 % 0 lf 1019,3 hPa 0,0 l/m 0 min 0 min 0 W/m 18,8 km/h (3 Bft) 95,74 %
25.11.2016 07:30 2,6 C 2,2 C 1,1 C 93 % 0 lf 1019,3 hPa 0,0 l/m 0 min 0 min 0 W/m 23,0 km/h (4 Bft) 95,74 %
25.11.2016 07:32 2,6 C 2,2 C 1,1 C 93 % 0 lf 1019,3 hPa 0,0 l/m 0 min 0 min 5 W/m 20,9 km/h (4 Bft) 100,00 %
25.11.2016 07:34 2,6 C 2,2 C 1,1 C 93 % 0 lf 1019,3 hPa 0,0 l/m 0 min 0 min 5 W/m 20,9 km/h (4 Bft) 97,87 %
25.11.2016 07:36 2,6 C 2,8 C 1,1 C 93 % 0 lf 1019,4 hPa 0,0 l/m 0 min 0 min 5 W/m 18,8 km/h (3 Bft) 95,74 %
25.11.2016 07:38 2,6 C 2,8 C 1,1 C 93 % 0 lf 1019,4 hPa 0,0 l/m 0 min 0 min 5 W/m 29,3 km/h (5 Bft) 93,62 %
25.11.2016 07:40 2,6 C 2,8 C 1,1 C 93 % 0 lf 1019,4 hPa 0,0 l/m 0 min 0 min 5 W/m 25,1 km/h (4 Bft) 91,49 %
25.11.2016 07:42 2,6 C 2,8 C 1,1 C 93 % 0 lf 1019,3 hPa 0,0 l/m 0 min 0 min 5 W/m 18,8 km/h (3 Bft) 97,87 %
25.11.2016 07:44 2,6 C 2,8 C 1,1 C 93 % 0 lf 1019,3 hPa 0,0 l/m 0 min 0 min 5 W/m 20,9 km/h (4 Bft) 95,65 %
25.11.2016 07:46 2,6 C 2,8 C 1,1 C 93 % 0 lf 1019,4 hPa 0,0 l/m 0 min 0 min 5 W/m 18,8 km/h (3 Bft) 97,87 %
25.11.2016 07:48 2,6 C 2,8 C 1,1 C 93 % 0 lf 1019,4 hPa 0,0 l/m 0 min 0 min 5 W/m 16,7 km/h (3 Bft) 93,62 %
25.11.2016 07:50 2,6 C 2,2 C 1,1 C 93 % 0 lf 1019,4 hPa 0,0 l/m 0 min 0 min 5 W/m 18,8 km/h (3 Bft) 95,74 %
25.11.2016 07:52 2,6 C 2,2 C 1,1 C 93 % 0 lf 1019,5 hPa 0,0 l/m 0 min 0 min 5 W/m 18,8 km/h (3 Bft) 95,74 %
25.11.2016 07:54 2,6 C 2,2 C 1,1 C 93 % 0 lf 1019,4 hPa 0,0 l/m 0 min 0 min 5 W/m 20,9 km/h (4 Bft) 89,36 %
25.11.2016 07:56 2,6 C 2,8 C 1,1 C 93 % 0 lf 1019,4 hPa 0,0 l/m 0 min 0 min 7 W/m 25,1 km/h (4 Bft) 84,78 %
25.11.2016 07:58 2,6 C 2,8 C 1,1 C 93 % 0 lf 1019,4 hPa 0,0 l/m 0 min 0 min 7 W/m 25,1 km/h (4 Bft) 82,98 %
25.11.2016 08:00 2,6 C 2,8 C 1,1 C 93 % 0 lf 1019,4 hPa 0,0 l/m 0 min 0 min 7 W/m 27,2 km/h (4 Bft) 87,23 %
25.11.2016 08:02 2,6 C 2,8 C 1,1 C 93 % 0 lf 1019,4 hPa 0,0 l/m 0 min 0 min 8 W/m 23,0 km/h (4 Bft) 91,49 %
25.11.2016 08:04 2,6 C 2,8 C 1,1 C 93 % 0 lf 1019,4 hPa 0,0 l/m 0 min 0 min 9 W/m 27,2 km/h (4 Bft) 93,62 %
25.11.2016 08:06 2,6 C 2,8 C 1,1 C 93 % 0 lf 1019,4 hPa 0,0 l/m 0 min 0 min 10 W/m 29,3 km/h (5 Bft) 91,49 %
25.11.2016 08:08 2,6 C 2,8 C 1,1 C 93 % 0 lf 1019,5 hPa 0,0 l/m 0 min 0 min 11 W/m 29,3 km/h (5 Bft) 93,48 %
25.11.2016 08:10 2,6 C 2,8 C 1,1 C 93 % 0 lf 1019,5 hPa 0,0 l/m 0 min 0 min 11 W/m 23,0 km/h (4 Bft) 89,36 %
25.11.2016 08:12 2,6 C 2,8 C 1,1 C 93 % 0 lf 1019,4 hPa 0,0 l/m 0 min 0 min 11 W/m 31,4 km/h (5 Bft) 93,62 %
25.11.2016 08:14 2,6 C 2,8 C 1,1 C 93 % 0 lf 1019,5 hPa 0,0 l/m 0 min 0 min 12 W/m 29,3 km/h (5 Bft) 85,11 %
25.11.2016 08:16 2,6 C 2,8 C 1,1 C 93 % 0 lf 1019,5 hPa 0,0 l/m 0 min 0 min 12 W/m 23,0 km/h (4 Bft) 93,62 %
25.11.2016 08:18 2,6 C 2,8 C 1,1 C 93 % 0 lf 1019,4 hPa 0,0 l/m 0 min 0 min 12 W/m 29,3 km/h (5 Bft) 89,36 %
25.11.2016 08:20 2,6 C 2,8 C 1,1 C 93 % 0 lf 1019,5 hPa 0,0 l/m 0 min 0 min 14 W/m 27,2 km/h (4 Bft) 93,48 %
25.11.2016 08:22 2,6 C 2,8 C 1,1 C 93 % 0 lf 1019,5 hPa 0,0 l/m 0 min 0 min 14 W/m 23,0 km/h (4 Bft) 91,49 %
25.11.2016 08:24 2,6 C 2,8 C 1,1 C 93 % 0 lf 1019,5 hPa 0,0 l/m 0 min 0 min 16 W/m 25,1 km/h (4 Bft) 97,87 %
25.11.2016 08:26 2,6 C 2,8 C 1,1 C 93 % 0 lf 1019,6 hPa 0,0 l/m 0 min 0 min 17 W/m 35,6 km/h (5 Bft) 87,23 %
25.11.2016 08:28 2,6 C 2,8 C 1,1 C 92 % 0 lf 1019,5 hPa 0,0 l/m 0 min 0 min 18 W/m 23,0 km/h (4 Bft) 89,36 %
25.11.2016 08:30 2,6 C 2,8 C 1,1 C 92 % 0 lf 1019,5 hPa 0,0 l/m 2 min 0 min 19 W/m 29,3 km/h (5 Bft) 89,13 %
25.11.2016 08:32 2,6 C 2,8 C 1,1 C 92 % 0 lf 1019,5 hPa 0,0 l/m 2 min 0 min 20 W/m 20,9 km/h (4 Bft) 95,74 %
25.11.2016 08:34 2,6 C 2,8 C 1,1 C 93 % 0 lf 1019,6 hPa 0,0 l/m 0 min 0 min 21 W/m 29,3 km/h (5 Bft) 91,49 %
25.11.2016 08:36 2,6 C 2,8 C 1,1 C 92 % 0 lf 1019,6 hPa 0,0 l/m 0 min 0 min 23 W/m 23,0 km/h (4 Bft) 91,49 %
25.11.2016 08:38 2,6 C 2,8 C 1,1 C 92 % 0 lf 1019,5 hPa 0,0 l/m 0 min 0 min 24 W/m 23,0 km/h (4 Bft) 91,30 %
25.11.2016 08:40 2,6 C 2,8 C 1,1 C 92 % 0 lf 1019,5 hPa 0,0 l/m 0 min 0 min 26 W/m 25,1 km/h (4 Bft) 95,74 %
25.11.2016 08:42 2,6 C 2,8 C 1,1 C 92 % 0 lf 1019,6 hPa 0,0 l/m 0 min 0 min 28 W/m 27,2 km/h (4 Bft) 86,96 %
25.11.2016 08:44 2,6 C 2,8 C 1,1 C 92 % 0 lf 1019,5 hPa 0,0 l/m 0 min 0 min 29 W/m 16,7 km/h (3 Bft) 85,11 %
25.11.2016 08:46 2,6 C 2,8 C 1,1 C 92 % 0 lf 1019,6 hPa 0,0 l/m 0 min 0 min 32 W/m 27,2 km/h (4 Bft) 93,62 %
25.11.2016 08:48 2,6 C 2,8 C 1,1 C 92 % 0 lf 1019,6 hPa 0,0 l/m 0 min 0 min 34 W/m 29,3 km/h (5 Bft) 97,87 %
25.11.2016 08:50 2,6 C 2,8 C 1,1 C 92 % 0 lf 1019,6 hPa 0,0 l/m 0 min 0 min 37 W/m 20,9 km/h (4 Bft) 89,36 %
25.11.2016 08:52 2,6 C 2,8 C 1,1 C 92 % 0 lf 1019,7 hPa 0,0 l/m 0 min 0 min 39 W/m 23,0 km/h (4 Bft) 95,74 %
25.11.2016 08:54 2,6 C 2,8 C 1,1 C 92 % 0 lf 1019,7 hPa 0,0 l/m 0 min 0 min 40 W/m 27,2 km/h (4 Bft) 89,13 %
25.11.2016 08:56 2,6 C 2,8 C 1,1 C 92 % 0 lf 1019,7 hPa 0,0 l/m 2 min 0 min 45 W/m 23,0 km/h (4 Bft) 91,49 %
25.11.2016 08:58 2,6 C 2,8 C 1,1 C 92 % 0 lf 1019,7 hPa 0,0 l/m 2 min 0 min 48 W/m 23,0 km/h (4 Bft) 89,36 %
25.11.2016 09:00 2,6 C 2,8 C 1,1 C 92 % 0 lf 1019,8 hPa 0,0 l/m 2 min 0 min 50 W/m 18,8 km/h (3 Bft) 91,49 %
25.11.2016 09:02 2,6 C 2,8 C 1,7 C 92 % 0 lf 1019,8 hPa 0,0 l/m 2 min 0 min 54 W/m 20,9 km/h (4 Bft) 85,11 %
25.11.2016 09:04 2,6 C 2,8 C 1,7 C 92 % 0 lf 1019,8 hPa 0,0 l/m 2 min 0 min 55 W/m 18,8 km/h (3 Bft) 87,23 %
25.11.2016 09:06 2,6 C 2,8 C 1,7 C 92 % 0 lf 1019,9 hPa 0,0 l/m 2 min 0 min 60 W/m 18,8 km/h (3 Bft) 91,30 %
25.11.2016 09:08 2,6 C 3,3 C 1,7 C 92 % 0 lf 1019,9 hPa 0,0 l/m 2 min 0 min 63 W/m 25,1 km/h (4 Bft) 85,11 %
25.11.2016 09:10 2,6 C 3,3 C 1,7 C 92 % 0 lf 1020,0 hPa 0,0 l/m 2 min 0 min 66 W/m 18,8 km/h (3 Bft) 100,00 %
25.11.2016 09:12 2,6 C 3,3 C 1,7 C 92 % 0 lf 1020,0 hPa 0,0 l/m 2 min 0 min 69 W/m 20,9 km/h (4 Bft) 82,98 %
25.11.2016 09:14 2,6 C 3,3 C 1,7 C 92 % 0 lf 1020,0 hPa 0,0 l/m 2 min 0 min 73 W/m 23,0 km/h (4 Bft) 93,62 %
25.11.2016 09:16 2,7 C 3,3 C 1,7 C 92 % 0 lf 1020,0 hPa 0,0 l/m 2 min 0 min 76 W/m 20,9 km/h (4 Bft) 95,74 %
25.11.2016 09:18 2,7 C 3,3 C 1,7 C 92 % 0 lf 1020,0 hPa 0,0 l/m 2 min 0 min 79 W/m 18,8 km/h (3 Bft) 88,64 %
25.11.2016 09:20 2,7 C 3,3 C 1,7 C 92 % 0 lf 1019,9 hPa 0,0 l/m 2 min 0 min 82 W/m 25,1 km/h (4 Bft) 93,62 %
25.11.2016 09:22 2,7 C 3,3 C 1,7 C 92 % 0 lf 1020,0 hPa 0,0 l/m 2 min 0 min 86 W/m 18,8 km/h (3 Bft) 89,36 %
25.11.2016 09:24 2,7 C 3,3 C 1,7 C 92 % 0 lf 1019,9 hPa 0,0 l/m 2 min 0 min 89 W/m 20,9 km/h (4 Bft) 93,62 %
25.11.2016 09:26 2,7 C 3,3 C 1,7 C 92 % 0 lf 1019,9 hPa 0,0 l/m 2 min 0 min 92 W/m 20,9 km/h (4 Bft) 89,36 %
25.11.2016 09:28 2,8 C 3,3 C 1,7 C 92 % 0 lf 1020,0 hPa 0,0 l/m 2 min 0 min 97 W/m 20,9 km/h (4 Bft) 95,74 %
25.11.2016 09:30 2,8 C 3,3 C 1,7 C 92 % 0 lf 1020,0 hPa 0,0 l/m 2 min 0 min 98 W/m 31,4 km/h (5 Bft) 91,30 %
25.11.2016 09:32 2,8 C 3,9 C 1,7 C 92 % 0 lf 1020,0 hPa 0,0 l/m 2 min 0 min 103 W/m 29,3 km/h (5 Bft) 89,36 %
25.11.2016 09:34 2,8 C 3,9 C 2,2 C 92 % 0 lf 1019,9 hPa 0,0 l/m 2 min 0 min 107 W/m 27,2 km/h (4 Bft) 91,49 %
25.11.2016 09:36 2,9 C 3,9 C 2,2 C 92 % 0 lf 1019,9 hPa 0,0 l/m 2 min 0 min 112 W/m 23,0 km/h (4 Bft) 82,98 %
25.11.2016 09:38 2,9 C 3,9 C 2,2 C 92 % 0 lf 1019,9 hPa 0,0 l/m 2 min 0 min 114 W/m 20,9 km/h (4 Bft) 89,36 %
25.11.2016 09:40 2,9 C 3,9 C 2,2 C 91 % 0 lf 1019,9 hPa 0,0 l/m 2 min 0 min 117 W/m 16,7 km/h (3 Bft) 97,87 %
25.11.2016 09:42 2,9 C 3,9 C 2,2 C 91 % 0 lf 1019,9 hPa 0,0 l/m 2 min 0 min 122 W/m 20,9 km/h (4 Bft) 91,43 %
25.11.2016 09:44 3,0 C 3,9 C 2,2 C 91 % 0 lf 1020,0 hPa 0,0 l/m 2 min 0 min 125 W/m 20,9 km/h (4 Bft) 95,00 %
25.11.2016 09:46 3,1 C 3,9 C 2,2 C 91 % 0 lf 1019,9 hPa 0,0 l/m 2 min 0 min 128 W/m 20,9 km/h (4 Bft) 91,49 %
25.11.2016 09:48 3,1 C 3,9 C 2,2 C 91 % 0 lf 1019,9 hPa 0,0 l/m 2 min 0 min 132 W/m 23,0 km/h (4 Bft) 87,23 %
25.11.2016 09:50 3,1 C 3,9 C 2,2 C 91 % 0 lf 1019,9 hPa 0,0 l/m 2 min 0 min 132 W/m 23,0 km/h (4 Bft) 87,23 %
25.11.2016 09:52 3,1 C 3,9 C 2,2 C 91 % 0 lf 1019,8 hPa 0,0 l/m 2 min 0 min 135 W/m 20,9 km/h (4 Bft) 91,30 %
25.11.2016 09:54 3,2 C 3,9 C 2,2 C 91 % 0 lf 1019,9 hPa 0,0 l/m 2 min 0 min 143 W/m 27,2 km/h (4 Bft) 93,62 %
25.11.2016 09:56 3,2 C 3,9 C 2,2 C 91 % 0 lf 1019,9 hPa 0,0 l/m 2 min 0 min 147 W/m 23,0 km/h (4 Bft) 91,49 %
25.11.2016 09:58 3,2 C 4,4 C 2,2 C 91 % 0 lf 1019,9 hPa 0,0 l/m 2 min 0 min 150 W/m 20,9 km/h (4 Bft) 95,74 %
25.11.2016 10:00 3,2 C 4,4 C 2,2 C 91 % 0 lf 1020,0 hPa 0,0 l/m 2 min 0 min 153 W/m 18,8 km/h (3 Bft) 91,49 %
25.11.2016 10:02 3,3 C 4,4 C 2,8 C 91 % 0 lf 1019,9 hPa 0,0 l/m 2 min 0 min 157 W/m 18,8 km/h (3 Bft) 89,36 %
25.11.2016 10:04 3,3 C 4,4 C 2,8 C 90 % 0 lf 1019,9 hPa 0,0 l/m 2 min 0 min 160 W/m 16,7 km/h (3 Bft) 95,74 %
25.11.2016 10:06 3,3 C 4,4 C 2,8 C 90 % 0 lf 1019,8 hPa 0,0 l/m 2 min 0 min 164 W/m 18,8 km/h (3 Bft) 95,65 %
25.11.2016 10:08 3,4 C 4,4 C 2,8 C 90 % 0 lf 1019,9 hPa 0,0 l/m 2 min 0 min 166 W/m 12,6 km/h (3 Bft) 91,49 %
25.11.2016 10:10 3,4 C 4,4 C 2,8 C 90 % 0 lf 1019,9 hPa 0,0 l/m 2 min 0 min 171 W/m 23,0 km/h (4 Bft) 97,87 %
25.11.2016 10:12 3,5 C 5,0 C 2,8 C 90 % 0 lf 1019,9 hPa 0,0 l/m 2 min 0 min 174 W/m 16,7 km/h (3 Bft) 95,74 %
25.11.2016 10:14 3,5 C 5,0 C 2,8 C 90 % 0 lf 1020,0 hPa 0,0 l/m 2 min 0 min 179 W/m 27,2 km/h (4 Bft) 97,87 %
25.11.2016 10:16 3,6 C 5,0 C 2,8 C 90 % 0 lf 1020,0 hPa 0,0 l/m 2 min 0 min 181 W/m 20,9 km/h (4 Bft) 97,83 %
25.11.2016 10:18 3,6 C 5,0 C 2,8 C 90 % 0 lf 1020,0 hPa 0,0 l/m 2 min 0 min 184 W/m 29,3 km/h (5 Bft) 95,74 %
25.11.2016 10:20 3,7 C 5,0 C 2,8 C 89 % 0 lf 1020,0 hPa 0,0 l/m 2 min 0 min 187 W/m 23,0 km/h (4 Bft) 97,87 %
25.11.2016 10:22 3,7 C 5,6 C 2,8 C 89 % 0 lf 1019,9 hPa 0,0 l/m 2 min 0 min 192 W/m 16,7 km/h (3 Bft) 95,74 %
25.11.2016 10:24 3,8 C 6,7 C 2,8 C 89 % 0 lf 1019,9 hPa 0,0 l/m 2 min 0 min 194 W/m 14,6 km/h (3 Bft) 93,62 %
25.11.2016 10:26 3,8 C 7,8 C 2,8 C 89 % 0 lf 1019,9 hPa 0,0 l/m 2 min 0 min 199 W/m 29,3 km/h (5 Bft) 97,87 %
25.11.2016 10:28 3,9 C 7,8 C 3,3 C 89 % 0 lf 1019,8 hPa 0,0 l/m 2 min 0 min 202 W/m 29,3 km/h (5 Bft) 97,87 %
25.11.2016 10:30 3,9 C 7,8 C 3,3 C 89 % 0 lf 1019,8 hPa 0,0 l/m 2 min 0 min 205 W/m 23,0 km/h (4 Bft) 95,65 %
25.11.2016 10:32 4,1 C 8,9 C 3,3 C 88 % 0 lf 1019,8 hPa 0,0 l/m 2 min 0 min 209 W/m 23,0 km/h (4 Bft) 97,87 %
25.11.2016 10:34 4,1 C 8,9 C 3,3 C 88 % 0 lf 1019,7 hPa 0,0 l/m 2 min 0 min 212 W/m 33,5 km/h (5 Bft) 97,87 %
25.11.2016 10:36 4,2 C 8,9 C 3,3 C 88 % 0 lf 1019,8 hPa 0,0 l/m 2 min 0 min 215 W/m 25,1 km/h (4 Bft) 97,87 %
25.11.2016 10:38 4,3 C 9,4 C 3,3 C 87 % 0 lf 1019,8 hPa 0,0 l/m 2 min 0 min 218 W/m 20,9 km/h (4 Bft) 97,87 %
25.11.2016 10:40 4,4 C 9,4 C 3,3 C 87 % 0 lf 1019,8 hPa 0,0 l/m 2 min 0 min 220 W/m 20,9 km/h (4 Bft) 97,83 %
25.11.2016 10:42 4,5 C 9,4 C 3,3 C 87 % 0 lf 1019,8 hPa 0,0 l/m 2 min 0 min 224 W/m 27,2 km/h (4 Bft) 95,74 %
25.11.2016 10:44 4,6 C 9,4 C 3,3 C 86 % 0 lf 1019,8 hPa 0,0 l/m 2 min 0 min 227 W/m 20,9 km/h (4 Bft) 95,74 %
25.11.2016 10:46 4,7 C 10,6 C 3,3 C 86 % 0 lf 1019,8 hPa 0,0 l/m 2 min 0 min 230 W/m 20,9 km/h (4 Bft) 95,74 %
25.11.2016 10:48 4,8 C 12,2 C 3,3 C 85 % 0 lf 1019,8 hPa 0,0 l/m 2 min 0 min 232 W/m 23,0 km/h (4 Bft) 95,74 %
25.11.2016 10:50 4,9 C 12,8 C 3,9 C 85 % 0 lf 1019,8 hPa 0,0 l/m 2 min 0 min 236 W/m 14,6 km/h (3 Bft) 93,62 %
25.11.2016 10:52 4,9 C 12,8 C 3,9 C 85 % 0 lf 1019,8 hPa 0,0 l/m 2 min 0 min 238 W/m 16,7 km/h (3 Bft) 95,65 %
25.11.2016 10:54 5,1 C 11,7 C 3,9 C 85 % 0 lf 1019,8 hPa 0,0 l/m 2 min 0 min 239 W/m 23,0 km/h (4 Bft) 95,74 %
25.11.2016 10:56 5,2 C 10,0 C 3,9 C 84 % 0 lf 1020,0 hPa 0,0 l/m 2 min 0 min 243 W/m 29,3 km/h (5 Bft) 95,74 %
25.11.2016 10:58 5,3 C 11,7 C 3,9 C 84 % 0 lf 1020,0 hPa 0,0 l/m 2 min 0 min 245 W/m 23,0 km/h (4 Bft) 95,74 %
25.11.2016 11:00 5,3 C 12,2 C 3,9 C 83 % 0 lf 1020,0 hPa 0,0 l/m 2 min 0 min 246 W/m 25,1 km/h (4 Bft) 93,62 %
25.11.2016 11:02 5,4 C 12,8 C 3,9 C 83 % 0 lf 1020,0 hPa 0,0 l/m 2 min 0 min 261 W/m 23,0 km/h (4 Bft) 91,30 %
25.11.2016 11:04 5,4 C 12,2 C 3,9 C 82 % 0 lf 1020,0 hPa 0,0 l/m 2 min 0 min 259 W/m 20,9 km/h (4 Bft) 95,74 %
25.11.2016 11:06 5,5 C 12,8 C 3,9 C 82 % 0 lf 1020,0 hPa 0,0 l/m 2 min 0 min 263 W/m 18,8 km/h (3 Bft) 93,62 %
25.11.2016 11:08 5,6 C 13,3 C 3,9 C 82 % 0 lf 1020,0 hPa 0,0 l/m 2 min 0 min 263 W/m 16,7 km/h (3 Bft) 95,74 %
25.11.2016 11:10 5,7 C 13,9 C 3,9 C 82 % 0 lf 1020,0 hPa 0,0 l/m 2 min 0 min 265 W/m 27,2 km/h (4 Bft) 97,87 %
25.11.2016 11:12 5,7 C 13,9 C 3,9 C 82 % 0 lf 1020,0 hPa 0,0 l/m 2 min 0 min 267 W/m 27,2 km/h (4 Bft) 93,62 %
25.11.2016 11:14 5,8 C 13,3 C 4,4 C 81 % 0 lf 1020,0 hPa 0,0 l/m 2 min 0 min 302 W/m 23,0 km/h (4 Bft) 95,74 %
25.11.2016 11:16 5,8 C 13,3 C 4,4 C 81 % 0 lf 1020,1 hPa 0,0 l/m 2 min 0 min 298 W/m 29,3 km/h (5 Bft) 93,48 %
25.11.2016 11:18 5,9 C 13,3 C 4,4 C 81 % 0 lf 1020,1 hPa 0,0 l/m 2 min 0 min 287 W/m 29,3 km/h (5 Bft) 100,00 %
25.11.2016 11:20 6,0 C 12,2 C 4,4 C 80 % 0 lf 1020,1 hPa 0,0 l/m 2 min 0 min 300 W/m 18,8 km/h (3 Bft) 95,74 %
25.11.2016 11:22 6,1 C 13,3 C 4,4 C 80 % 0 lf 1020,1 hPa 0,0 l/m 2 min 0 min 316 W/m 23,0 km/h (4 Bft) 95,74 %
25.11.2016 11:24 6,2 C 13,3 C 4,4 C 80 % 0 lf 1020,1 hPa 0,0 l/m 2 min 0 min 399 W/m 27,2 km/h (4 Bft) 97,87 %
25.11.2016 11:26 6,2 C 13,9 C 4,4 C 79 % 0 lf 1020,1 hPa 0,0 l/m 2 min 0 min 527 W/m 18,8 km/h (3 Bft) 97,83 %
25.11.2016 11:28 6,3 C 13,3 C 4,4 C 79 % 0 lf 1020,0 hPa 0,0 l/m 2 min 0 min 537 W/m 31,4 km/h (5 Bft) 100,00 %
25.11.2016 11:30 6,4 C 12,2 C 4,4 C 78 % 0 lf 1020,0 hPa 0,0 l/m 2 min 0 min 658 W/m 29,3 km/h (5 Bft) 100,00 %
25.11.2016 11:32 6,4 C 11,7 C 4,4 C 78 % 0 lf 1020,0 hPa 0,0 l/m 2 min 0 min 656 W/m 27,2 km/h (4 Bft) 91,49 %
25.11.2016 11:34 6,4 C 12,2 C 4,4 C 77 % 0 lf 1020,1 hPa 0,0 l/m 2 min 0 min 622 W/m 23,0 km/h (4 Bft) 97,87 %
25.11.2016 11:36 6,6 C 12,2 C 4,4 C 77 % 0 lf 1020,1 hPa 0,0 l/m 2 min 0 min 622 W/m 35,6 km/h (5 Bft) 97,87 %
25.11.2016 11:38 6,6 C 12,2 C 5,0 C 77 % 0 lf 1020,1 hPa 0,0 l/m 2 min 0 min 782 W/m 20,9 km/h (4 Bft) 100,00 %
25.11.2016 11:40 6,6 C 12,8 C 5,0 C 77 % 0 lf 1020,1 hPa 0,0 l/m 2 min 0 min 812 W/m 33,5 km/h (5 Bft) 93,62 %
25.11.2016 11:42 6,6 C 12,2 C 5,0 C 77 % 0 lf 1020,1 hPa 0,0 l/m 2 min 0 min 816 W/m 25,1 km/h (4 Bft) 95,74 %
25.11.2016 11:44 6,7 C 12,2 C 5,0 C 76 % 0 lf 1020,0 hPa 0,0 l/m 2 min 0 min 848 W/m 25,1 km/h (4 Bft) 95,74 %
25.11.2016 11:46 6,7 C 11,1 C 5,0 C 76 % 0 lf 1020,0 hPa 0,0 l/m 2 min 0 min 659 W/m 31,4 km/h (5 Bft) 97,87 %
25.11.2016 11:48 6,7 C 11,1 C 5,0 C 76 % 0 lf 1020,0 hPa 0,0 l/m 2 min 0 min 630 W/m 27,2 km/h (4 Bft) 97,87 %
25.11.2016 11:50 6,8 C 11,1 C 5,0 C 76 % 0 lf 1020,0 hPa 0,0 l/m 2 min 0 min 597 W/m 27,2 km/h (4 Bft) 95,65 %
25.11.2016 11:52 6,8 C 10,0 C 5,0 C 75 % 0 lf 1020,0 hPa 0,0 l/m 2 min 0 min 623 W/m 23,0 km/h (4 Bft) 95,74 %
25.11.2016 11:54 6,8 C 10,0 C 5,0 C 75 % 0 lf 1020,0 hPa 0,0 l/m 2 min 0 min 619 W/m 18,8 km/h (3 Bft) 100,00 %
25.11.2016 11:56 6,8 C 10,0 C 5,0 C 75 % 0 lf 1019,9 hPa 0,0 l/m 2 min 0 min 657 W/m 27,2 km/h (4 Bft) 100,00 %
25.11.2016 11:58 6,9 C 10,0 C 5,0 C 75 % 0 lf 1020,0 hPa 0,0 l/m 2 min 0 min 687 W/m 23,0 km/h (4 Bft) 95,74 %
25.11.2016 12:00 6,9 C 10,0 C 5,0 C 74 % 0 lf 1019,9 hPa 0,0 l/m 2 min 0 min 647 W/m 29,3 km/h (5 Bft) 95,74 %
25.11.2016 12:02 6,9 C 10,0 C 5,6 C 74 % 0 lf 1020,0 hPa 0,0 l/m 2 min 0 min 343 W/m 25,1 km/h (4 Bft) 95,65 %
25.11.2016 12:06 7,0 C 9,4 C 5,6 C 74 % 0 lf 1019,9 hPa 0,0 l/m 2 min 0 min 301 W/m 27,2 km/h (4 Bft) 95,65 %
25.11.2016 12:08 7,1 C 9,4 C 5,6 C 74 % 0 lf 1019,8 hPa 0,0 l/m 2 min 0 min 297 W/m 27,2 km/h (4 Bft) 95,65 %
25.11.2016 12:10 7,1 C 10,0 C 5,6 C 74 % 0 lf 1019,9 hPa 0,0 l/m 2 min 0 min 274 W/m 27,2 km/h (4 Bft) 95,65 %
25.11.2016 12:12 7,1 C 10,0 C 5,6 C 74 % 0 lf 1019,9 hPa 0,0 l/m 2 min 0 min 294 W/m 29,3 km/h (5 Bft) 95,65 %
25.11.2016 12:14 7,1 C 9,4 C 5,6 C 73 % 0 lf 1019,8 hPa 0,0 l/m 2 min 0 min 293 W/m 29,3 km/h (5 Bft) 91,81 %
25.11.2016 12:16 7,1 C 10,0 C 5,6 C 73 % 0 lf 1019,8 hPa 0,0 l/m 2 min 0 min 295 W/m 29,3 km/h (5 Bft) 95,74 %
25.11.2016 12:18 7,2 C 10,0 C 5,6 C 73 % 0 lf 1019,8 hPa 0,0 l/m 2 min 0 min 294 W/m 20,9 km/h (4 Bft) 93,62 %
25.11.2016 12:20 7,2 C 10,0 C 5,6 C 73 % 0 lf 1019,7 hPa 0,0 l/m 2 min 0 min 294 W/m 18,8 km/h (3 Bft) 93,62 %
25.11.2016 12:22 7,2 C 10,0 C 5,6 C 72 % 0 lf 1019,7 hPa 0,0 l/m 2 min 0 min 290 W/m 18,8 km/h (3 Bft) 95,74 %
25.11.2016 12:24 7,2 C 10,6 C 5,6 C 72 % 0 lf 1019,7 hPa 0,0 l/m 2 min 0 min 283 W/m 23,0 km/h (4 Bft) 91,49 %
25.11.2016 12:26 7,3 C 11,1 C 5,6 C 73 % 0 lf 1019,8 hPa 0,0 l/m 2 min 0 min 280 W/m 23,0 km/h (4 Bft) 93,48 %
25.11.2016 12:28 7,3 C 10,6 C 6,1 C 73 % 0 lf 1019,7 hPa 0,0 l/m 2 min 0 min 274 W/m 20,9 km/h (4 Bft) 93,62 %
25.11.2016 12:30 7,3 C 10,6 C 6,1 C 72 % 0 lf 1019,7 hPa 0,0 l/m 2 min 0 min 259 W/m 27,2 km/h (4 Bft) 91,49 %
25.11.2016 12:32 7,4 C 11,7 C 6,1 C 71 % 0 lf 1019,8 hPa 0,0 l/m 2 min 0 min 280 W/m 31,4 km/h (5 Bft) 91,49 %
25.11.2016 12:34 7,4 C 12,2 C 6,1 C 72 % 0 lf 1019,8 hPa 0,0 l/m 2 min 0 min 282 W/m 27,2 km/h (4 Bft) 91,49 %
25.11.2016 12:36 7,4 C 12,2 C 6,1 C 72 % 0 lf 1019,8 hPa 0,0 l/m 2 min 0 min 282 W/m 23,0 km/h (4 Bft) 93,48 %
25.11.2016 12:38 7,5 C 12,2 C 6,1 C 71 % 0 lf 1019,7 hPa 0,0 l/m 2 min 0 min 282 W/m 20,9 km/h (4 Bft) 91,49 %
25.11.2016 12:40 7,6 C 12,8 C 6,1 C 71 % 0 lf 1019,8 hPa 0,0 l/m 2 min 0 min 286 W/m 23,0 km/h (4 Bft) 93,62 %
25.11.2016 12:42 7,6 C 12,2 C 6,1 C 71 % 0 lf 1019,8 hPa 0,0 l/m 2 min 0 min 283 W/m 25,1 km/h (4 Bft) 91,49 %
25.11.2016 12:44 7,7 C 12,2 C 6,1 C 71 % 0 lf 1019,8 hPa 0,0 l/m 2 min 0 min 282 W/m 23,0 km/h (4 Bft) 93,62 %
25.11.2016 12:46 7,7 C 12,2 C 6,1 C 71 % 0 lf 1019,8 hPa 0,0 l/m 2 min 0 min 280 W/m 16,7 km/h (3 Bft) 91,49 %
25.11.2016 12:48 7,7 C 12,2 C 6,1 C 71 % 0 lf 1019,7 hPa 0,0 l/m 2 min 0 min 278 W/m 18,8 km/h (3 Bft) 93,48 %
25.11.2016 12:50 7,8 C 12,2 C 6,1 C 71 % 0 lf 1019,7 hPa 0,0 l/m 2 min 0 min 278 W/m 18,8 km/h (3 Bft) 93,62 %
25.11.2016 12:52 7,8 C 11,7 C 6,1 C 71 % 0 lf 1019,7 hPa 0,0 l/m 2 min 0 min 278 W/m 18,8 km/h (3 Bft) 97,87 %
25.11.2016 12:54 7,9 C 11,7 C 6,1 C 71 % 0 lf 1019,7 hPa 0,0 l/m 2 min 0 min 277 W/m 20,9 km/h (4 Bft) 91,49 %
25.11.2016 12:56 7,9 C 11,7 C 6,7 C 71 % 0 lf 1019,8 hPa 0,0 l/m 2 min 0 min 276 W/m 18,8 km/h (3 Bft) 95,74 %
25.11.2016 12:58 8,0 C 11,7 C 6,7 C 70 % 0 lf 1019,8 hPa 0,0 l/m 2 min 0 min 274 W/m 18,8 km/h (3 Bft) 95,74 %
25.11.2016 13:00 8,1 C 11,7 C 6,7 C 70 % 0 lf 1019,8 hPa 0,0 l/m 2 min 0 min 272 W/m 23,0 km/h (4 Bft) 93,48 %
25.11.2016 13:02 8,1 C 11,7 C 6,7 C 70 % 0 lf 1019,7 hPa 0,0 l/m 2 min 0 min 271 W/m 20,9 km/h (4 Bft) 93,62 %
25.11.2016 13:04 8,1 C 11,7 C 6,7 C 69 % 0 lf 1019,7 hPa 0,0 l/m 2 min 0 min 268 W/m 27,2 km/h (4 Bft) 91,49 %
25.11.2016 13:06 8,2 C 11,7 C 6,7 C 70 % 0 lf 1019,7 hPa 0,0 l/m 2 min 0 min 267 W/m 27,2 km/h (4 Bft) 95,74 %
25.11.2016 13:08 8,2 C 11,1 C 6,7 C 70 % 0 lf 1019,7 hPa 0,0 l/m 2 min 0 min 265 W/m 20,9 km/h (4 Bft) 95,74 %
25.11.2016 13:10 8,2 C 11,7 C 6,7 C 70 % 0 lf 1019,7 hPa 0,0 l/m 2 min 0 min 263 W/m 16,7 km/h (3 Bft) 93,62 %
25.11.2016 13:12 8,3 C 12,8 C 6,7 C 70 % 0 lf 1019,7 hPa 0,0 l/m 2 min 0 min 261 W/m 23,0 km/h (4 Bft) 95,65 %
25.11.2016 13:14 8,3 C 13,3 C 6,7 C 70 % 0 lf 1019,6 hPa 0,0 l/m 2 min 0 min 259 W/m 23,0 km/h (4 Bft) 91,49 %
25.11.2016 13:16 8,3 C 12,8 C 6,7 C 69 % 0 lf 1019,6 hPa 0,0 l/m 2 min 0 min 257 W/m 29,3 km/h (5 Bft) 85,11 %
25.11.2016 13:18 8,4 C 12,2 C 6,7 C 69 % 0 lf 1019,6 hPa 0,0 l/m 2 min 0 min 253 W/m 27,2 km/h (4 Bft) 93,62 %
25.11.2016 13:20 8,4 C 11,7 C 6,7 C 69 % 0 lf 1019,6 hPa 0,0 l/m 2 min 0 min 249 W/m 27,2 km/h (4 Bft) 95,74 %
25.11.2016 13:22 8,4 C 10,6 C 6,7 C 67 % 0 lf 1019,6 hPa 0,0 l/m 2 min 0 min 250 W/m 25,1 km/h (4 Bft) 91,49 %
25.11.2016 13:24 8,4 C 11,1 C 6,7 C 67 % 0 lf 1019,5 hPa 0,0 l/m 2 min 0 min 247 W/m 27,2 km/h (4 Bft) 93,48 %
25.11.2016 13:26 8,4 C 11,7 C 6,7 C 67 % 0 lf 1019,5 hPa 0,0 l/m 2 min 0 min 246 W/m 20,9 km/h (4 Bft) 97,87 %
25.11.2016 13:28 8,4 C 11,7 C 6,7 C 67 % 0 lf 1019,4 hPa 0,0 l/m 2 min 0 min 243 W/m 29,3 km/h (5 Bft) 95,74 %
25.11.2016 13:30 8,5 C 11,1 C 6,7 C 67 % 0 lf 1019,4 hPa 0,0 l/m 2 min 0 min 241 W/m 27,2 km/h (4 Bft) 97,87 %
25.11.2016 13:32 8,5 C 11,7 C 6,7 C 67 % 0 lf 1019,4 hPa 0,0 l/m 2 min 0 min 240 W/m 18,8 km/h (3 Bft) 95,74 %
25.11.2016 13:34 8,5 C 13,3 C 6,7 C 67 % 0 lf 1019,4 hPa 0,0 l/m 2 min 0 min 238 W/m 25,1 km/h (4 Bft) 97,83 %
25.11.2016 13:36 8,5 C 15,0 C 6,7 C 67 % 0 lf 1019,4 hPa 0,0 l/m 2 min 0 min 236 W/m 18,8 km/h (3 Bft) 97,87 %
25.11.2016 13:38 8,6 C 13,9 C 6,7 C 67 % 0 lf 1019,3 hPa 0,0 l/m 2 min 0 min 232 W/m 16,7 km/h (3 Bft) 97,87 %
25.11.2016 13:40 8,6 C 14,4 C 6,7 C 67 % 0 lf 1019,3 hPa 0,0 l/m 2 min 0 min 230 W/m 18,8 km/h (3 Bft) 93,62 %
25.11.2016 13:42 8,6 C 14,4 C 6,7 C 67 % 0 lf 1019,3 hPa 0,0 l/m 2 min 0 min 228 W/m 31,4 km/h (5 Bft) 97,87 %
25.11.2016 13:44 8,6 C 15,0 C 6,7 C 68 % 0 lf 1019,2 hPa 0,0 l/m 2 min 0 min 226 W/m 23,0 km/h (4 Bft) 95,74 %
25.11.2016 13:46 8,7 C 15,0 C 6,7 C 67 % 0 lf 1019,3 hPa 0,0 l/m 2 min 0 min 224 W/m 29,3 km/h (5 Bft) 95,65 %
25.11.2016 13:48 8,7 C 15,6 C 6,7 C 67 % 0 lf 1019,2 hPa 0,0 l/m 2 min 0 min 221 W/m 20,9 km/h (4 Bft) 95,74 %
25.11.2016 13:50 8,7 C 16,1 C 7,2 C 67 % 0 lf 1019,2 hPa 0,0 l/m 2 min 0 min 218 W/m 18,8 km/h (3 Bft) 97,87 %
25.11.2016 13:52 8,7 C 15,0 C 7,2 C 67 % 0 lf 1019,2 hPa 0,0 l/m 2 min 0 min 214 W/m 23,0 km/h (4 Bft) 100,00 %
25.11.2016 13:54 8,7 C 15,0 C 7,2 C 66 % 0 lf 1019,2 hPa 0,0 l/m 2 min 0 min 212 W/m 23,0 km/h (4 Bft) 100,00 %
25.11.2016 13:56 8,8 C 15,0 C 7,2 C 66 % 0 lf 1019,1 hPa 0,0 l/m 2 min 0 min 209 W/m 20,9 km/h (4 Bft) 95,74 %
25.11.2016 13:58 8,8 C 15,6 C 6,7 C 66 % 0 lf 1019,1 hPa 0,0 l/m 2 min 0 min 206 W/m 20,9 km/h (4 Bft) 100,00 %
25.11.2016 14:00 8,8 C 16,1 C 7,2 C 66 % 0 lf 1019,1 hPa 0,0 l/m 2 min 0 min 203 W/m 27,2 km/h (4 Bft) 97,87 %
25.11.2016 14:02 8,9 C 15,6 C 7,2 C 66 % 0 lf 1019,1 hPa 0,0 l/m 2 min 0 min 200 W/m 18,8 km/h (3 Bft) 100,00 %
25.11.2016 14:04 8,9 C 16,1 C 7,2 C 66 % 0 lf 1019,1 hPa 0,0 l/m 2 min 0 min 197 W/m 29,3 km/h (5 Bft) 100,00 %
25.11.2016 14:06 8,9 C 16,1 C 7,2 C 66 % 0 lf 1019,1 hPa 0,0 l/m 2 min 0 min 194 W/m 25,1 km/h (4 Bft) 100,00 %
25.11.2016 14:08 8,9 C 16,1 C 7,2 C 66 % 0 lf 1019,1 hPa 0,0 l/m 2 min 0 min 191 W/m 18,8 km/h (3 Bft) 97,87 %
25.11.2016 14:10 8,9 C 15,6 C 7,2 C 66 % 0 lf 1019,1 hPa 0,0 l/m 2 min 0 min 188 W/m 25,1 km/h (4 Bft) 100,00 %
25.11.2016 14:12 8,8 C 15,6 C 7,2 C 66 % 0 lf 1019,1 hPa 0,0 l/m 2 min 0 min 184 W/m 20,9 km/h (4 Bft) 100,00 %
25.11.2016 14:14 8,8 C 14,4 C 7,2 C 66 % 0 lf 1019,1 hPa 0,0 l/m 2 min 0 min 181 W/m 20,9 km/h (4 Bft) 100,00 %
25.11.2016 14:16 8,8 C 15,6 C 7,2 C 66 % 0 lf 1019,1 hPa 0,0 l/m 2 min 0 min 178 W/m 20,9 km/h (4 Bft) 100,00 %
25.11.2016 14:18 8,8 C 15,6 C 6,7 C 66 % 0 lf 1019,0 hPa 0,0 l/m 2 min 0 min 175 W/m 23,0 km/h (4 Bft) 95,74 %
25.11.2016 14:20 8,8 C 14,4 C 6,7 C 66 % 0 lf 1019,0 hPa 0,0 l/m 2 min 0 min 171 W/m 23,0 km/h (4 Bft) 97,87 %
25.11.2016 14:22 8,9 C 14,4 C 6,7 C 65 % 0 lf 1019,0 hPa 0,0 l/m 2 min 0 min 169 W/m 27,2 km/h (4 Bft) 97,83 %
25.11.2016 14:24 8,9 C 14,4 C 6,7 C 65 % 0 lf 1018,9 hPa 0,0 l/m 2 min 0 min 166 W/m 20,9 km/h (4 Bft) 95,74 %
25.11.2016 14:26 8,9 C 14,4 C 6,7 C 65 % 0 lf 1018,9 hPa 0,0 l/m 2 min 0 min 162 W/m 16,7 km/h (3 Bft) 93,62 %
25.11.2016 14:28 8,9 C 14,4 C 6,7 C 65 % 0 lf 1018,9 hPa 0,0 l/m 2 min 0 min 160 W/m 25,1 km/h (4 Bft) 95,74 %
25.11.2016 14:30 8,9 C 14,4 C 6,7 C 65 % 0 lf 1018,9 hPa 0,0 l/m 2 min 0 min 156 W/m 25,1 km/h (4 Bft) 97,87 %
25.11.2016 14:32 8,8 C 14,4 C 6,7 C 65 % 0 lf 1018,9 hPa 0,0 l/m 2 min 0 min 153 W/m 25,1 km/h (4 Bft) 97,87 %
25.11.2016 14:34 8,8 C 12,2 C 6,7 C 65 % 0 lf 1018,9 hPa 0,0 l/m 2 min 0 min 149 W/m 23,0 km/h (4 Bft) 97,83 %
25.11.2016 14:36 8,7 C 11,1 C 6,7 C 66 % 0 lf 1018,9 hPa 0,0 l/m 2 min 0 min 147 W/m 23,0 km/h (4 Bft) 95,74 %
25.11.2016 14:38 8,7 C 10,0 C 6,7 C 66 % 0 lf 1018,9 hPa 0,0 l/m 2 min 0 min 143 W/m 18,8 km/h (3 Bft) 95,74 %
25.11.2016 14:40 8,7 C 9,4 C 6,7 C 66 % 0 lf 1018,9 hPa 0,0 l/m 2 min 0 min 140 W/m 20,9 km/h (4 Bft) 95,74 %
25.11.2016 14:42 8,6 C 8,9 C 6,7 C 66 % 0 lf 1018,9 hPa 0,0 l/m 2 min 0 min 136 W/m 25,1 km/h (4 Bft) 95,74 %
25.11.2016 14:44 8,6 C 8,9 C 6,7 C 66 % 0 lf 1018,9 hPa 0,0 l/m 2 min 0 min 133 W/m 27,2 km/h (4 Bft) 95,74 %
25.11.2016 14:46 8,6 C 8,9 C 6,7 C 66 % 0 lf 1018,9 hPa 0,0 l/m 2 min 0 min 129 W/m 27,2 km/h (4 Bft) 93,48 %
25.11.2016 14:48 8,5 C 8,3 C 6,7 C 66 % 0 lf 1018,9 hPa 0,0 l/m 2 min 0 min 126 W/m 25,1 km/h (4 Bft) 97,87 %
25.11.2016 14:50 8,4 C 8,3 C 6,1 C 66 % 0 lf 1018,9 hPa 0,0 l/m 2 min 0 min 123 W/m 23,0 km/h (4 Bft) 97,87 %
25.11.2016 14:52 8,4 C 8,3 C 6,7 C 66 % 0 lf 1018,9 hPa 0,0 l/m 2 min 0 min 119 W/m 20,9 km/h (4 Bft) 95,74 %
25.11.2016 14:54 8,4 C 8,3 C 6,1 C 66 % 0 lf 1018,8 hPa 0,0 l/m 2 min 0 min 116 W/m 20,9 km/h (4 Bft) 93,62 %
25.11.2016 14:56 8,4 C 8,9 C 6,1 C 67 % 0 lf 1018,9 hPa 0,0 l/m 2 min 0 min 113 W/m 18,8 km/h (3 Bft) 95,74 %
25.11.2016 14:58 8,4 C 8,9 C 6,1 C 67 % 0 lf 1018,9 hPa 0,0 l/m 2 min 0 min 109 W/m 12,6 km/h (3 Bft) 95,65 %
25.11.2016 15:00 8,3 C 9,4 C 6,1 C 67 % 0 lf 1018,9 hPa 0,0 l/m 2 min 0 min 106 W/m 12,6 km/h (3 Bft) 97,87 %
25.11.2016 15:02 8,3 C 9,4 C 6,1 C 68 % 0 lf 1018,9 hPa 0,0 l/m 2 min 0 min 102 W/m 10,5 km/h (2 Bft) 97,87 %
25.11.2016 15:04 8,3 C 9,4 C 6,1 C 68 % 0 lf 1018,9 hPa 0,0 l/m 2 min 0 min 99 W/m 20,9 km/h (4 Bft) 100,00 %
25.11.2016 15:06 8,3 C 9,4 C 6,1 C 68 % 0 lf 1018,9 hPa 0,0 l/m 2 min 0 min 97 W/m 25,1 km/h (4 Bft) 97,87 %
25.11.2016 15:08 8,2 C 9,4 C 6,1 C 67 % 0 lf 1018,9 hPa 0,0 l/m 2 min 0 min 93 W/m 27,2 km/h (4 Bft) 95,65 %
25.11.2016 15:10 8,2 C 9,4 C 6,1 C 67 % 0 lf 1018,9 hPa 0,0 l/m 2 min 0 min 89 W/m 23,0 km/h (4 Bft) 97,87 %
25.11.2016 15:12 8,2 C 9,4 C 6,1 C 67 % 0 lf 1018,9 hPa 0,0 l/m 2 min 0 min 86 W/m 20,9 km/h (4 Bft) 97,87 %
25.11.2016 15:14 8,2 C 9,4 C 6,1 C 67 % 0 lf 1018,9 hPa 0,0 l/m 2 min 0 min 83 W/m 18,8 km/h (3 Bft) 95,74 %
25.11.2016 15:16 8,2 C 9,4 C 6,1 C 67 % 0 lf 1018,8 hPa 0,0 l/m 2 min 0 min 78 W/m 20,9 km/h (4 Bft) 95,74 %
25.11.2016 15:18 8,1 C 9,4 C 6,1 C 67 % 0 lf 1018,9 hPa 0,0 l/m 2 min 0 min 76 W/m 16,7 km/h (3 Bft) 93,62 %
25.11.2016 15:20 8,1 C 8,9 C 6,1 C 68 % 0 lf 1018,9 hPa 0,0 l/m 2 min 0 min 72 W/m 16,7 km/h (3 Bft) 97,83 %
25.11.2016 15:22 8,1 C 8,3 C 5,6 C 68 % 0 lf 1019,0 hPa 0,0 l/m 2 min 0 min 69 W/m 16,7 km/h (3 Bft) 97,87 %
25.11.2016 15:24 8,1 C 8,3 C 5,6 C 68 % 0 lf 1019,0 hPa 0,0 l/m 0 min 0 min 65 W/m 18,8 km/h (3 Bft) 95,74 %
25.11.2016 15:26 8,1 C 8,3 C 5,6 C 68 % 0 lf 1019,0 hPa 0,0 l/m 0 min 0 min 63 W/m 18,8 km/h (3 Bft) 95,74 %
25.11.2016 15:28 8,0 C 7,8 C 5,6 C 68 % 0 lf 1019,0 hPa 0,0 l/m 0 min 0 min 59 W/m 29,3 km/h (5 Bft) 97,87 %
25.11.2016 15:30 8,0 C 7,8 C 5,6 C 68 % 0 lf 1019,0 hPa 0,0 l/m 0 min 0 min 55 W/m 20,9 km/h (4 Bft) 97,87 %
25.11.2016 15:32 7,9 C 7,8 C 5,6 C 68 % 0 lf 1019,0 hPa 0,0 l/m 0 min 0 min 52 W/m 23,0 km/h (4 Bft) 95,65 %
25.11.2016 15:34 7,9 C 7,8 C 5,6 C 68 % 0 lf 1019,1 hPa 0,0 l/m 0 min 0 min 50 W/m 20,9 km/h (4 Bft) 93,62 %
25.11.2016 15:36 7,9 C 7,8 C 5,6 C 68 % 0 lf 1019,1 hPa 0,0 l/m 0 min 0 min 47 W/m 16,7 km/h (3 Bft) 95,74 %
25.11.2016 15:38 7,8 C 7,8 C 5,6 C 68 % 0 lf 1019,1 hPa 0,0 l/m 0 min 0 min 45 W/m 23,0 km/h (4 Bft) 95,74 %
25.11.2016 15:40 7,8 C 7,8 C 5,0 C 68 % 0 lf 1019,1 hPa 0,0 l/m 0 min 0 min 42 W/m 12,6 km/h (3 Bft) 93,62 %
25.11.2016 15:42 7,8 C 7,8 C 5,6 C 68 % 0 lf 1019,1 hPa 0,0 l/m 0 min 0 min 41 W/m 27,2 km/h (4 Bft) 91,49 %
25.11.2016 15:44 7,7 C 7,8 C 5,6 C 68 % 0 lf 1019,1 hPa 0,0 l/m 0 min 0 min 40 W/m 23,0 km/h (4 Bft) 95,65 %
25.11.2016 15:46 7,7 C 7,8 C 5,0 C 68 % 0 lf 1019,1 hPa 0,0 l/m 0 min 0 min 39 W/m 16,7 km/h (3 Bft) 91,49 %
25.11.2016 15:48 7,7 C 7,8 C 5,0 C 68 % 0 lf 1019,1 hPa 0,0 l/m 0 min 0 min 38 W/m 18,8 km/h (3 Bft) 93,62 %
25.11.2016 15:50 7,7 C 7,8 C 5,0 C 68 % 0 lf 1019,2 hPa 0,0 l/m 0 min 0 min 37 W/m 18,8 km/h (3 Bft) 95,74 %
25.11.2016 15:52 7,6 C 7,8 C 5,0 C 68 % 0 lf 1019,1 hPa 0,0 l/m 0 min 0 min 36 W/m 20,9 km/h (4 Bft) 95,74 %
25.11.2016 15:54 7,6 C 7,8 C 5,0 C 68 % 0 lf 1019,1 hPa 0,0 l/m 0 min 0 min 35 W/m 20,9 km/h (4 Bft) 95,74 %
25.11.2016 15:56 7,6 C 7,8 C 5,0 C 68 % 0 lf 1019,1 hPa 0,0 l/m 0 min 0 min 33 W/m 16,7 km/h (3 Bft) 97,83 %
25.11.2016 15:58 7,6 C 7,8 C 5,0 C 68 % 0 lf 1019,1 hPa 0,0 l/m 0 min 0 min 32 W/m 20,9 km/h (4 Bft) 87,23 %
25.11.2016 16:00 7,6 C 7,2 C 5,0 C 68 % 0 lf 1019,1 hPa 0,0 l/m 2 min 0 min 31 W/m 18,8 km/h (3 Bft) 91,49 %
25.11.2016 16:02 7,5 C 7,2 C 4,4 C 68 % 0 lf 1019,1 hPa 0,0 l/m 2 min 0 min 30 W/m 20,9 km/h (4 Bft) 97,87 %
25.11.2016 16:04 7,5 C 7,2 C 5,0 C 68 % 0 lf 1019,1 hPa 0,0 l/m 2 min 0 min 28 W/m 18,8 km/h (3 Bft) 93,62 %
25.11.2016 16:06 7,4 C 7,2 C 5,0 C 69 % 0 lf 1019,1 hPa 0,0 l/m 2 min 0 min 28 W/m 23,0 km/h (4 Bft) 97,87 %
25.11.2016 16:08 7,4 C 7,2 C 4,4 C 68 % 0 lf 1019,1 hPa 0,0 l/m 2 min 0 min 27 W/m 23,0 km/h (4 Bft) 93,48 %
25.11.2016 16:10 7,4 C 7,2 C 4,4 C 68 % 0 lf 1019,1 hPa 0,0 l/m 2 min 0 min 26 W/m 27,2 km/h (4 Bft) 95,74 %
25.11.2016 16:12 7,3 C 7,2 C 4,4 C 68 % 0 lf 1019,1 hPa 0,0 l/m 2 min 0 min 25 W/m 20,9 km/h (4 Bft) 97,87 %
25.11.2016 16:14 7,3 C 7,2 C 4,4 C 68 % 0 lf 1019,1 hPa 0,0 l/m 2 min 0 min 25 W/m 23,0 km/h (4 Bft) 95,74 %
25.11.2016 16:16 7,2 C 7,2 C 4,4 C 68 % 0 lf 1019,1 hPa 0,0 l/m 2 min 0 min 23 W/m 23,0 km/h (4 Bft) 100,00 %
25.11.2016 16:18 7,2 C 6,7 C 4,4 C 68 % 0 lf 1019,1 hPa 0,0 l/m 2 min 0 min 22 W/m 27,2 km/h (4 Bft) 100,00 %
25.11.2016 16:20 7,2 C 6,7 C 4,4 C 69 % 0 lf 1019,1 hPa 0,0 l/m 2 min 0 min 20 W/m 23,0 km/h (4 Bft) 97,87 %
25.11.2016 16:22 7,2 C 6,7 C 4,4 C 69 % 0 lf 1019,0 hPa 0,0 l/m 0 min 0 min 19 W/m 23,0 km/h (4 Bft) 97,87 %
25.11.2016 16:24 7,1 C 6,7 C 4,4 C 69 % 0 lf 1019,1 hPa 0,0 l/m 0 min 0 min 17 W/m 18,8 km/h (3 Bft) 100,00 %
25.11.2016 16:26 7,1 C 6,7 C 3,9 C 69 % 0 lf 1019,1 hPa 0,0 l/m 0 min 0 min 16 W/m 20,9 km/h (4 Bft) 100,00 %
25.11.2016 16:28 7,0 C 6,7 C 4,4 C 69 % 0 lf 1019,1 hPa 0,0 l/m 0 min 0 min 15 W/m 27,2 km/h (4 Bft) 97,87 %
25.11.2016 16:30 7,0 C 6,7 C 3,9 C 69 % 0 lf 1019,1 hPa 0,0 l/m 0 min 0 min 13 W/m 18,8 km/h (3 Bft) 95,65 %
25.11.2016 16:32 6,9 C 6,7 C 4,4 C 69 % 0 lf 1019,1 hPa 0,0 l/m 0 min 0 min 12 W/m 20,9 km/h (4 Bft) 95,74 %
25.11.2016 16:34 6,9 C 6,7 C 4,4 C 69 % 0 lf 1019,1 hPa 0,0 l/m 0 min 0 min 12 W/m 20,9 km/h (4 Bft) 97,87 %
25.11.2016 16:36 6,9 C 6,7 C 4,4 C 69 % 0 lf 1019,1 hPa 0,0 l/m 0 min 0 min 11 W/m 18,8 km/h (3 Bft) 100,00 %
25.11.2016 16:38 6,9 C 6,7 C 4,4 C 69 % 0 lf 1019,2 hPa 0,0 l/m 0 min 0 min 11 W/m 16,7 km/h (3 Bft) 91,49 %
25.11.2016 16:40 6,9 C 6,7 C 4,4 C 69 % 0 lf 1019,1 hPa 0,0 l/m 0 min 0 min 11 W/m 10,5 km/h (2 Bft) 93,62 %
25.11.2016 16:42 6,9 C 6,7 C 4,4 C 69 % 0 lf 1019,2 hPa 0,0 l/m 0 min 0 min 11 W/m 18,8 km/h (3 Bft) 97,83 %
25.11.2016 16:43 6,8 C 6,7 C 4,4 C 69 % 0 lf 1019,2 hPa 0,0 l/m 0 min 0 min 9 W/m 12,6 km/h (3 Bft) 95,65 %
25.11.2016 16:46 6,8 C 6,7 C 4,4 C 69 % 0 lf 1019,2 hPa 0,0 l/m 0 min 0 min 9 W/m 16,7 km/h (3 Bft) 97,30 %
25.11.2016 16:48 6,8 C 6,7 C 3,9 C 69 % 0 lf 1019,2 hPa 0,0 l/m 0 min 0 min 7 W/m 14,6 km/h (3 Bft) 97,87 %
25.11.2016 16:50 6,8 C 6,7 C 3,9 C 69 % 0 lf 1019,2 hPa 0,0 l/m 0 min 0 min 7 W/m 23,0 km/h (4 Bft) 97,87 %
25.11.2016 16:52 6,8 C 6,7 C 3,9 C 69 % 0 lf 1019,2 hPa 0,0 l/m 0 min 0 min 5 W/m 12,6 km/h (3 Bft) 95,74 %
25.11.2016 16:54 6,8 C 6,1 C 3,3 C 69 % 0 lf 1019,2 hPa 0,0 l/m 0 min 0 min 5 W/m 10,5 km/h (2 Bft) 95,65 %
25.11.2016 16:56 6,8 C 6,7 C 3,9 C 69 % 0 lf 1019,3 hPa 0,0 l/m 0 min 0 min 5 W/m 14,6 km/h (3 Bft) 89,36 %
25.11.2016 16:58 6,7 C 6,1 C 3,3 C 69 % 0 lf 1019,3 hPa 0,0 l/m 0 min 0 min 5 W/m 12,6 km/h (3 Bft) 95,74 %
25.11.2016 17:00 6,7 C 6,1 C 3,3 C 69 % 0 lf 1019,3 hPa 0,0 l/m 0 min 0 min 5 W/m 14,6 km/h (3 Bft) 91,49 %
25.11.2016 17:02 6,7 C 6,1 C 3,3 C 69 % 0 lf 1019,3 hPa 0,0 l/m 0 min 0 min 5 W/m 10,5 km/h (2 Bft) 89,36 %
25.11.2016 17:04 6,7 C 6,1 C 3,3 C 69 % 0 lf 1019,3 hPa 0,0 l/m 0 min 0 min 4 W/m 14,6 km/h (3 Bft) 97,83 %
25.11.2016 17:06 6,6 C 6,1 C 3,3 C 69 % 0 lf 1019,3 hPa 0,0 l/m 0 min 0 min 0 W/m 12,6 km/h (3 Bft) 95,74 %
25.11.2016 17:08 6,6 C 6,1 C 2,8 C 69 % 0 lf 1019,4 hPa 0,0 l/m 0 min 0 min 5 W/m 10,5 km/h (2 Bft) 97,87 %
25.11.2016 17:10 6,5 C 5,6 C 2,8 C 69 % 0 lf 1019,3 hPa 0,0 l/m 0 min 0 min 5 W/m 14,6 km/h (3 Bft) 93,62 %
25.11.2016 17:12 6,5 C 5,6 C 2,8 C 69 % 0 lf 1019,3 hPa 0,0 l/m 0 min 0 min 5 W/m 12,6 km/h (3 Bft) 93,62 %
25.11.2016 17:14 6,4 C 5,6 C 2,8 C 69 % 0 lf 1019,3 hPa 0,0 l/m 0 min 0 min 5 W/m 20,9 km/h (4 Bft) 97,92 %
25.11.2016 17:16 6,4 C 6,1 C 2,8 C 69 % 0 lf 1019,4 hPa 0,0 l/m 0 min 0 min 5 W/m 18,8 km/h (3 Bft) 95,74 %
25.11.2016 17:18 6,4 C 5,6 C 3,3 C 69 % 0 lf 1019,4 hPa 0,0 l/m 0 min 0 min 5 W/m 12,6 km/h (3 Bft) 97,87 %
25.11.2016 17:20 6,4 C 5,6 C 2,8 C 69 % 0 lf 1019,4 hPa 0,0 l/m 0 min 0 min 5 W/m 10,5 km/h (2 Bft) 95,74 %
25.11.2016 17:22 6,3 C 5,6 C 2,8 C 69 % 0 lf 1019,4 hPa 0,0 l/m 0 min 0 min 4 W/m 12,6 km/h (3 Bft) 97,83 %
25.11.2016 17:24 6,2 C 5,6 C 2,8 C 70 % 0 lf 1019,4 hPa 0,0 l/m 0 min 0 min 2 W/m 23,0 km/h (4 Bft) 97,87 %
25.11.2016 17:26 6,2 C 5,6 C 2,8 C 70 % 0 lf 1019,4 hPa 0,0 l/m 0 min 0 min 0 W/m 18,8 km/h (3 Bft) 97,87 %
25.11.2016 17:28 6,2 C 5,6 C 2,8 C 70 % 0 lf 1019,4 hPa 0,0 l/m 0 min 0 min 0 W/m 10,5 km/h (2 Bft) 97,87 %
25.11.2016 17:30 6,1 C 5,0 C 2,8 C 70 % 0 lf 1019,4 hPa 0,0 l/m 0 min 0 min 0 W/m 14,6 km/h (3 Bft) 95,74 %
25.11.2016 17:32 6,1 C 5,0 C 2,2 C 70 % 0 lf 1019,4 hPa 0,0 l/m 0 min 0 min 0 W/m 12,6 km/h (3 Bft) 95,74 %
25.11.2016 17:34 6,0 C 5,0 C 2,2 C 70 % 0 lf 1019,4 hPa 0,0 l/m 0 min 0 min 0 W/m 12,6 km/h (3 Bft) 97,83 %
25.11.2016 17:36 6,0 C 5,0 C 2,8 C 70 % 0 lf 1019,4 hPa 0,0 l/m 0 min 0 min 2 W/m 16,7 km/h (3 Bft) 100,00 %
25.11.2016 17:38 5,9 C 5,0 C 2,2 C 71 % 0 lf 1019,4 hPa 0,0 l/m 0 min 0 min 5 W/m 14,6 km/h (3 Bft) 97,83 %
25.11.2016 17:40 5,9 C 5,0 C 2,2 C 71 % 0 lf 1019,4 hPa 0,0 l/m 0 min 0 min 5 W/m 12,6 km/h (3 Bft) 95,74 %
25.11.2016 17:42 5,8 C 5,0 C 2,2 C 71 % 0 lf 1019,5 hPa 0,0 l/m 0 min 0 min 5 W/m 16,7 km/h (3 Bft) 93,62 %
25.11.2016 17:44 5,8 C 5,0 C 2,2 C 71 % 0 lf 1019,5 hPa 0,0 l/m 0 min 0 min 5 W/m 14,6 km/h (3 Bft) 97,87 %
25.11.2016 17:46 5,7 C 5,0 C 2,2 C 71 % 0 lf 1019,5 hPa 0,0 l/m 0 min 0 min 5 W/m 16,7 km/h (3 Bft) 93,62 %
25.11.2016 17:48 5,7 C 5,0 C 2,2 C 71 % 0 lf 1019,5 hPa 0,0 l/m 0 min 0 min 5 W/m 10,5 km/h (2 Bft) 89,13 %
25.11.2016 17:50 5,7 C 5,0 C 2,2 C 71 % 0 lf 1019,5 hPa 0,0 l/m 0 min 0 min 5 W/m 14,6 km/h (3 Bft) 95,74 %
25.11.2016 17:52 5,6 C 5,0 C 2,2 C 71 % 0 lf 1019,6 hPa 0,0 l/m 0 min 0 min 5 W/m 16,7 km/h (3 Bft) 97,87 %
25.11.2016 17:54 5,6 C 5,0 C 2,2 C 71 % 0 lf 1019,6 hPa 0,0 l/m 0 min 0 min 5 W/m 14,6 km/h (3 Bft) 91,49 %
25.11.2016 17:56 5,6 C 5,6 C 2,2 C 71 % 0 lf 1019,5 hPa 0,0 l/m 0 min 0 min 5 W/m 16,7 km/h (3 Bft) 93,62 %
25.11.2016 17:58 5,5 C 5,0 C 2,2 C 72 % 0 lf 1019,5 hPa 0,0 l/m 0 min 0 min 5 W/m 10,5 km/h (2 Bft) 93,62 %
25.11.2016 18:00 5,4 C 5,6 C 2,8 C 71 % 0 lf 1019,6 hPa 0,0 l/m 0 min 0 min 5 W/m 16,7 km/h (3 Bft) 95,65 %
25.11.2016 18:02 5,4 C 5,0 C 2,2 C 71 % 0 lf 1019,6 hPa 0,0 l/m 0 min 0 min 5 W/m 16,7 km/h (3 Bft) 91,49 %
25.11.2016 18:06 5,4 C 5,0 C 2,2 C 72 % 0 lf 1019,5 hPa 0,0 l/m 0 min 0 min 0 W/m 18,8 km/h (3 Bft) 95,00 %
25.11.2016 18:08 5,4 C 5,0 C 2,8 C 72 % 0 lf 1019,5 hPa 0,0 l/m 0 min 0 min 0 W/m 18,8 km/h (3 Bft) 91,49 %
25.11.2016 18:10 5,3 C 5,0 C 2,2 C 72 % 0 lf 1019,5 hPa 0,0 l/m 0 min 0 min 0 W/m 18,8 km/h (3 Bft) 93,62 %
25.11.2016 18:12 5,3 C 5,6 C 2,8 C 72 % 0 lf 1019,6 hPa 0,0 l/m 0 min 0 min 0 W/m 16,7 km/h (3 Bft) 89,36 %
25.11.2016 18:14 5,3 C 5,6 C 2,8 C 72 % 0 lf 1019,6 hPa 0,0 l/m 0 min 0 min 0 W/m 18,8 km/h (3 Bft) 93,62 %
25.11.2016 18:16 5,3 C 5,6 C 2,8 C 72 % 0 lf 1019,6 hPa 0,0 l/m 0 min 0 min 0 W/m 18,8 km/h (3 Bft) 95,65 %
25.11.2016 18:18 5,3 C 5,6 C 2,8 C 72 % 0 lf 1019,7 hPa 0,0 l/m 0 min 0 min 0 W/m 20,9 km/h (4 Bft) 89,36 %
25.11.2016 18:20 5,3 C 5,6 C 2,8 C 72 % 0 lf 1019,7 hPa 0,0 l/m 0 min 0 min 0 W/m 12,6 km/h (3 Bft) 93,62 %
25.11.2016 18:22 5,3 C 5,6 C 3,3 C 72 % 0 lf 1019,7 hPa 0,0 l/m 0 min 0 min 5 W/m 25,1 km/h (4 Bft) 95,74 %
25.11.2016 18:24 5,3 C 5,6 C 3,3 C 72 % 0 lf 1019,7 hPa 0,0 l/m 0 min 0 min 5 W/m 18,8 km/h (3 Bft) 95,74 %
25.11.2016 18:26 5,3 C 5,6 C 2,8 C 71 % 0 lf 1019,8 hPa 0,0 l/m 0 min 0 min 5 W/m 18,8 km/h (3 Bft) 95,74 %
25.11.2016 18:28 5,3 C 5,6 C 2,8 C 72 % 0 lf 1019,8 hPa 0,0 l/m 0 min 0 min 5 W/m 18,8 km/h (3 Bft) 89,13 %
25.11.2016 18:30 5,3 C 5,6 C 2,8 C 72 % 0 lf 1019,8 hPa 0,0 l/m 0 min 0 min 5 W/m 16,7 km/h (3 Bft) 95,74 %
25.11.2016 18:32 5,3 C 5,6 C 2,8 C 71 % 0 lf 1019,8 hPa 0,0 l/m 0 min 0 min 5 W/m 18,8 km/h (3 Bft) 97,96 %
25.11.2016 18:34 5,3 C 5,6 C 2,8 C 71 % 0 lf 1019,9 hPa 0,0 l/m 0 min 0 min 5 W/m 23,0 km/h (4 Bft) 93,62 %
25.11.2016 18:36 5,3 C 5,6 C 3,3 C 71 % 0 lf 1019,9 hPa 0,0 l/m 0 min 0 min 5 W/m 16,7 km/h (3 Bft) 95,74 %
25.11.2016 18:38 5,3 C 5,6 C 3,3 C 71 % 0 lf 1019,8 hPa 0,0 l/m 0 min 0 min 0 W/m 16,7 km/h (3 Bft) 95,65 %
25.11.2016 18:40 5,3 C 5,6 C 3,3 C 71 % 0 lf 1019,8 hPa 0,0 l/m 0 min 0 min 0 W/m 18,8 km/h (3 Bft) 89,36 %
25.11.2016 18:42 5,3 C 5,6 C 2,8 C 71 % 0 lf 1020,0 hPa 0,0 l/m 0 min 0 min 5 W/m 23,0 km/h (4 Bft) 93,62 %
25.11.2016 18:44 5,3 C 5,6 C 2,8 C 71 % 0 lf 1019,9 hPa 0,0 l/m 0 min 0 min 5 W/m 18,8 km/h (3 Bft) 95,74 %
25.11.2016 18:46 5,3 C 5,6 C 2,8 C 71 % 0 lf 1020,0 hPa 0,0 l/m 0 min 0 min 0 W/m 23,0 km/h (4 Bft) 95,74 %
25.11.2016 18:48 5,3 C 5,0 C 2,8 C 71 % 0 lf 1020,0 hPa 0,0 l/m 0 min 0 min 5 W/m 23,0 km/h (4 Bft) 95,74 %
25.11.2016 18:50 5,3 C 5,0 C 2,8 C 71 % 0 lf 1020,0 hPa 0,0 l/m 0 min 0 min 5 W/m 29,3 km/h (5 Bft) 95,65 %
25.11.2016 18:52 5,3 C 5,0 C 2,8 C 71 % 0 lf 1020,0 hPa 0,0 l/m 0 min 0 min 5 W/m 18,8 km/h (3 Bft) 93,62 %
25.11.2016 18:54 5,3 C 5,0 C 2,8 C 71 % 0 lf 1020,0 hPa 0,0 l/m 0 min 0 min 5 W/m 23,0 km/h (4 Bft) 100,00 %
25.11.2016 18:56 5,3 C 5,0 C 2,8 C 71 % 0 lf 1019,9 hPa 0,0 l/m 0 min 0 min 0 W/m 14,6 km/h (3 Bft) 93,62 %
25.11.2016 18:58 5,2 C 5,0 C 2,2 C 72 % 0 lf 1020,0 hPa 0,0 l/m 0 min 0 min 0 W/m 16,7 km/h (3 Bft) 100,00 %
25.11.2016 19:00 5,2 C 5,0 C 2,2 C 72 % 0 lf 1019,9 hPa 0,0 l/m 0 min 0 min 5 W/m 20,9 km/h (4 Bft) 95,74 %
25.11.2016 19:02 5,2 C 5,0 C 2,8 C 72 % 0 lf 1020,0 hPa 0,0 l/m 0 min 0 min 5 W/m 14,6 km/h (3 Bft) 100,00 %
25.11.2016 19:04 5,2 C 5,0 C 2,2 C 72 % 0 lf 1020,0 hPa 0,0 l/m 0 min 0 min 5 W/m 18,8 km/h (3 Bft) 97,87 %
25.11.2016 19:06 5,2 C 5,0 C 2,2 C 72 % 0 lf 1020,0 hPa 0,0 l/m 0 min 0 min 5 W/m 18,8 km/h (3 Bft) 97,87 %
25.11.2016 19:08 5,2 C 5,0 C 2,2 C 72 % 0 lf 1020,0 hPa 0,0 l/m 0 min 0 min 5 W/m 10,5 km/h (2 Bft) 95,74 %
25.11.2016 19:10 5,1 C 5,0 C 2,2 C 72 % 0 lf 1020,0 hPa 0,0 l/m 0 min 0 min 0 W/m 14,6 km/h (3 Bft) 93,62 %
25.11.2016 19:12 5,1 C 5,0 C 2,2 C 72 % 0 lf 1020,0 hPa 0,0 l/m 0 min 0 min 0 W/m 12,6 km/h (3 Bft) 97,87 %
25.11.2016 19:14 5,1 C 5,0 C 2,8 C 72 % 0 lf 1020,0 hPa 0,0 l/m 0 min 0 min 5 W/m 16,7 km/h (3 Bft) 97,87 %
25.11.2016 19:16 5,1 C 5,0 C 2,2 C 72 % 0 lf 1020,0 hPa 0,0 l/m 0 min 0 min 5 W/m 27,2 km/h (4 Bft) 97,87 %
25.11.2016 19:18 5,1 C 5,0 C 2,8 C 72 % 0 lf 1020,0 hPa 0,0 l/m 0 min 0 min 0 W/m 23,0 km/h (4 Bft) 95,74 %
25.11.2016 19:20 5,1 C 5,0 C 2,8 C 72 % 0 lf 1020,1 hPa 0,0 l/m 0 min 0 min 0 W/m 23,0 km/h (4 Bft) 97,87 %
25.11.2016 19:22 5,1 C 5,0 C 2,8 C 72 % 0 lf 1020,0 hPa 0,0 l/m 0 min 0 min 0 W/m 20,9 km/h (4 Bft) 97,87 %
25.11.2016 19:24 5,1 C 5,0 C 2,8 C 72 % 0 lf 1020,0 hPa 0,0 l/m 0 min 0 min 0 W/m 16,7 km/h (3 Bft) 97,83 %
25.11.2016 19:26 5,0 C 5,0 C 2,8 C 72 % 0 lf 1020,0 hPa 0,0 l/m 0 min 0 min 0 W/m 29,3 km/h (5 Bft) 93,62 %
25.11.2016 19:28 5,0 C 5,6 C 2,8 C 72 % 0 lf 1020,0 hPa 0,0 l/m 0 min 0 min 0 W/m 18,8 km/h (3 Bft) 95,74 %
25.11.2016 19:30 5,1 C 5,0 C 2,8 C 72 % 0 lf 1020,1 hPa 0,0 l/m 0 min 0 min 0 W/m 18,8 km/h (3 Bft) 97,87 %
25.11.2016 19:32 5,1 C 5,0 C 2,8 C 72 % 0 lf 1020,1 hPa 0,0 l/m 0 min 0 min 5 W/m 16,7 km/h (3 Bft) 97,87 %
25.11.2016 19:34 5,1 C 5,0 C 2,8 C 72 % 0 lf 1020,0 hPa 0,0 l/m 0 min 0 min 5 W/m 29,3 km/h (5 Bft) 95,74 %
25.11.2016 19:36 5,1 C 5,0 C 2,8 C 72 % 0 lf 1020,0 hPa 0,0 l/m 0 min 0 min 0 W/m 18,8 km/h (3 Bft) 95,65 %
25.11.2016 19:38 5,0 C 5,0 C 2,2 C 72 % 0 lf 1020,0 hPa 0,0 l/m 0 min 0 min 0 W/m 20,9 km/h (4 Bft) 95,74 %
25.11.2016 19:40 5,0 C 4,4 C 2,2 C 72 % 0 lf 1020,0 hPa 0,0 l/m 0 min 0 min 5 W/m 20,9 km/h (4 Bft) 95,74 %
25.11.2016 19:42 4,9 C 5,0 C 2,2 C 72 % 0 lf 1020,0 hPa 0,0 l/m 0 min 0 min 5 W/m 18,8 km/h (3 Bft) 93,62 %
25.11.2016 19:44 4,9 C 5,0 C 2,2 C 72 % 0 lf 1020,1 hPa 0,0 l/m 0 min 0 min 5 W/m 14,6 km/h (3 Bft) 93,62 %
25.11.2016 19:46 4,9 C 5,0 C 2,2 C 72 % 0 lf 1020,1 hPa 0,0 l/m 0 min 0 min 5 W/m 16,7 km/h (3 Bft) 93,62 %
25.11.2016 19:48 4,9 C 5,0 C 2,2 C 72 % 0 lf 1020,0 hPa 0,0 l/m 0 min 0 min 5 W/m 20,9 km/h (4 Bft) 95,65 %
25.11.2016 19:50 4,9 C 5,0 C 2,2 C 72 % 0 lf 1020,1 hPa 0,0 l/m 0 min 0 min 5 W/m 18,8 km/h (3 Bft) 93,62 %
25.11.2016 19:52 4,9 C 5,0 C 2,2 C 73 % 0 lf 1020,1 hPa 0,0 l/m 0 min 0 min 5 W/m 16,7 km/h (3 Bft) 95,74 %
25.11.2016 19:54 4,8 C 4,4 C 2,2 C 73 % 0 lf 1020,1 hPa 0,0 l/m 0 min 0 min 5 W/m 16,7 km/h (3 Bft) 93,62 %
25.11.2016 19:56 4,8 C 4,4 C 2,2 C 73 % 0 lf 1020,1 hPa 0,0 l/m 0 min 0 min 5 W/m 14,6 km/h (3 Bft) 95,74 %
25.11.2016 19:58 4,8 C 4,4 C 2,2 C 73 % 0 lf 1020,1 hPa 0,0 l/m 0 min 0 min 5 W/m 14,6 km/h (3 Bft) 95,74 %
25.11.2016 20:00 4,8 C 4,4 C 2,2 C 73 % 0 lf 1020,1 hPa 0,0 l/m 0 min 0 min 5 W/m 16,7 km/h (3 Bft) 93,48 %
25.11.2016 20:02 4,8 C 4,4 C 2,2 C 73 % 0 lf 1020,1 hPa 0,0 l/m 0 min 0 min 5 W/m 16,7 km/h (3 Bft) 93,62 %
25.11.2016 20:04 4,7 C 4,4 C 2,2 C 73 % 0 lf 1020,0 hPa 0,0 l/m 0 min 0 min 5 W/m 16,7 km/h (3 Bft) 97,87 %
25.11.2016 20:06 4,7 C 4,4 C 2,2 C 73 % 0 lf 1020,0 hPa 0,0 l/m 0 min 0 min 5 W/m 16,7 km/h (3 Bft) 95,74 %
25.11.2016 20:08 4,7 C 4,4 C 2,2 C 73 % 0 lf 1020,1 hPa 0,0 l/m 0 min 0 min 5 W/m 18,8 km/h (3 Bft) 97,87 %
25.11.2016 20:10 4,7 C 4,4 C 2,2 C 73 % 0 lf 1020,0 hPa 0,0 l/m 0 min 0 min 5 W/m 16,7 km/h (3 Bft) 97,87 %
25.11.2016 20:12 4,7 C 4,4 C 2,2 C 73 % 0 lf 1020,0 hPa 0,0 l/m 0 min 0 min 5 W/m 16,7 km/h (3 Bft) 97,83 %
25.11.2016 20:14 4,7 C 4,4 C 2,8 C 74 % 0 lf 1020,0 hPa 0,0 l/m 0 min 0 min 5 W/m 16,7 km/h (3 Bft) 100,00 %
25.11.2016 20:16 4,6 C 4,4 C 2,8 C 74 % 0 lf 1020,0 hPa 0,0 l/m 0 min 0 min 5 W/m 18,8 km/h (3 Bft) 100,00 %
25.11.2016 20:18 4,6 C 4,4 C 2,2 C 74 % 0 lf 1020,1 hPa 0,0 l/m 0 min 0 min 5 W/m 14,6 km/h (3 Bft) 97,87 %
25.11.2016 20:20 4,6 C 4,4 C 2,2 C 74 % 0 lf 1020,0 hPa 0,0 l/m 0 min 0 min 5 W/m 10,5 km/h (2 Bft) 97,87 %
25.11.2016 20:22 4,6 C 4,4 C 1,7 C 74 % 0 lf 1020,0 hPa 0,0 l/m 0 min 0 min 5 W/m 18,8 km/h (3 Bft) 97,87 %
25.11.2016 20:24 4,6 C 4,4 C 1,7 C 74 % 0 lf 1020,0 hPa 0,0 l/m 0 min 0 min 5 W/m 14,6 km/h (3 Bft) 100,00 %
25.11.2016 20:26 4,5 C 4,4 C 1,7 C 74 % 0 lf 1020,1 hPa 0,0 l/m 0 min 0 min 5 W/m 14,6 km/h (3 Bft) 97,87 %
25.11.2016 20:28 4,5 C 4,4 C 1,7 C 74 % 0 lf 1020,0 hPa 0,0 l/m 0 min 0 min 5 W/m 10,5 km/h (2 Bft) 97,87 %
25.11.2016 20:30 4,5 C 3,9 C 1,7 C 74 % 0 lf 1020,0 hPa 0,0 l/m 0 min 0 min 5 W/m 16,7 km/h (3 Bft) 100,00 %
25.11.2016 20:32 4,4 C 4,4 C 1,7 C 74 % 0 lf 1020,0 hPa 0,0 l/m 0 min 0 min 5 W/m 10,5 km/h (2 Bft) 97,87 %
25.11.2016 20:34 4,4 C 3,9 C 1,7 C 74 % 0 lf 1020,0 hPa 0,0 l/m 0 min 0 min 5 W/m 16,7 km/h (3 Bft) 95,65 %
25.11.2016 20:36 4,4 C 3,9 C 1,7 C 74 % 0 lf 1020,1 hPa 0,0 l/m 0 min 0 min 5 W/m 8,4 km/h (2 Bft) 97,83 %
25.11.2016 20:38 4,4 C 3,9 C 1,7 C 74 % 0 lf 1020,1 hPa 0,0 l/m 0 min 0 min 5 W/m 8,4 km/h (2 Bft) 100,00 %
25.11.2016 20:40 4,3 C 3,9 C 1,7 C 74 % 0 lf 1020,1 hPa 0,0 l/m 0 min 0 min 5 W/m 14,6 km/h (3 Bft) 100,00 %
25.11.2016 20:42 4,3 C 3,3 C 1,7 C 74 % 0 lf 1020,1 hPa 0,0 l/m 0 min 0 min 5 W/m 14,6 km/h (3 Bft) 97,87 %
25.11.2016 20:44 4,3 C 3,3 C 1,1 C 75 % 0 lf 1020,1 hPa 0,0 l/m 0 min 0 min 5 W/m 10,5 km/h (2 Bft) 100,00 %
25.11.2016 20:46 4,2 C 3,3 C 1,1 C 75 % 0 lf 1020,0 hPa 0,0 l/m 0 min 0 min 5 W/m 6,3 km/h (2 Bft) 95,65 %
25.11.2016 20:48 4,2 C 3,3 C 1,1 C 75 % 0 lf 1020,1 hPa 0,0 l/m 0 min 0 min 5 W/m 8,4 km/h (2 Bft) 100,00 %
25.11.2016 20:50 4,2 C 2,8 C 0,6 C 75 % 0 lf 1020,2 hPa 0,0 l/m 0 min 0 min 5 W/m 8,4 km/h (2 Bft) 97,87 %
25.11.2016 20:52 4,2 C 3,3 C 0,6 C 75 % 0 lf 1020,2 hPa 0,0 l/m 0 min 0 min 5 W/m 12,6 km/h (3 Bft) 100,00 %
25.11.2016 20:54 4,1 C 3,3 C 0,6 C 75 % 0 lf 1020,1 hPa 0,0 l/m 0 min 0 min 5 W/m 14,6 km/h (3 Bft) 100,00 %
25.11.2016 20:56 4,1 C 3,3 C 1,1 C 75 % 0 lf 1020,2 hPa 0,0 l/m 0 min 0 min 5 W/m 12,6 km/h (3 Bft) 97,87 %
25.11.2016 20:58 4,1 C 2,8 C 1,1 C 75 % 0 lf 1020,2 hPa 0,0 l/m 0 min 0 min 5 W/m 6,3 km/h (2 Bft) 100,00 %
25.11.2016 21:00 4,0 C 2,8 C 0,6 C 75 % 0 lf 1020,2 hPa 0,0 l/m 0 min 0 min 5 W/m 8,4 km/h (2 Bft) 100,00 %
25.11.2016 21:02 3,9 C 2,8 C 0,6 C 75 % 0 lf 1020,2 hPa 0,0 l/m 0 min 0 min 5 W/m 8,4 km/h (2 Bft) 97,87 %
25.11.2016 21:04 3,9 C 2,8 C 0,6 C 75 % 0 lf 1020,1 hPa 0,0 l/m 0 min 0 min 5 W/m 10,5 km/h (2 Bft) 95,74 %
25.11.2016 21:06 3,9 C 2,8 C 0,6 C 76 % 0 lf 1020,1 hPa 0,0 l/m 0 min 0 min 5 W/m 10,5 km/h (2 Bft) 95,74 %
25.11.2016 21:08 3,8 C 2,8 C 0,6 C 76 % 0 lf 1020,1 hPa 0,0 l/m 0 min 0 min 5 W/m 12,6 km/h (3 Bft) 95,74 %
25.11.2016 21:10 3,8 C 2,8 C 0,6 C 76 % 0 lf 1020,1 hPa 0,0 l/m 0 min 0 min 5 W/m 6,3 km/h (2 Bft) 93,48 %
25.11.2016 21:12 3,7 C 2,8 C 0,6 C 76 % 0 lf 1020,1 hPa 0,0 l/m 0 min 0 min 5 W/m 10,5 km/h (2 Bft) 95,74 %
25.11.2016 21:14 3,7 C 2,8 C 0,6 C 76 % 0 lf 1020,1 hPa 0,0 l/m 0 min 0 min 5 W/m 10,5 km/h (2 Bft) 97,87 %
25.11.2016 21:16 3,7 C 2,8 C 0,6 C 76 % 0 lf 1020,1 hPa 0,0 l/m 0 min 0 min 5 W/m 14,6 km/h (3 Bft) 95,74 %
25.11.2016 21:18 3,6 C 2,8 C 0,6 C 77 % 0 lf 1020,1 hPa 0,0 l/m 0 min 0 min 5 W/m 14,6 km/h (3 Bft) 93,62 %
25.11.2016 21:20 3,6 C 2,8 C 0,6 C 77 % 0 lf 1020,1 hPa 0,0 l/m 0 min 0 min 5 W/m 12,6 km/h (3 Bft) 97,87 %
25.11.2016 21:22 3,5 C 2,8 C 0,6 C 77 % 0 lf 1020,1 hPa 0,0 l/m 0 min 0 min 5 W/m 16,7 km/h (3 Bft) 97,83 %
25.11.2016 21:24 3,4 C 2,8 C 0,6 C 77 % 0 lf 1020,2 hPa 0,0 l/m 0 min 0 min 5 W/m 10,5 km/h (2 Bft) 95,74 %
25.11.2016 21:26 3,4 C 2,8 C 0,6 C 77 % 0 lf 1020,3 hPa 0,0 l/m 0 min 0 min 5 W/m 12,6 km/h (3 Bft) 95,74 %
25.11.2016 21:28 3,4 C 2,8 C 0,6 C 77 % 0 lf 1020,3 hPa 0,0 l/m 0 min 0 min 5 W/m 14,6 km/h (3 Bft) 91,49 %
25.11.2016 21:30 3,3 C 2,8 C 0,6 C 78 % 0 lf 1020,2 hPa 0,0 l/m 0 min 0 min 5 W/m 16,7 km/h (3 Bft) 87,23 %
25.11.2016 21:32 3,3 C 2,8 C 0,6 C 78 % 0 lf 1020,3 hPa 0,0 l/m 0 min 0 min 5 W/m 16,7 km/h (3 Bft) 100,00 %
25.11.2016 21:34 3,2 C 2,8 C 0,6 C 78 % 0 lf 1020,3 hPa 0,0 l/m 0 min 0 min 5 W/m 12,6 km/h (3 Bft) 93,48 %
25.11.2016 21:36 3,2 C 2,8 C 0,6 C 78 % 0 lf 1020,3 hPa 0,0 l/m 0 min 0 min 5 W/m 10,5 km/h (2 Bft) 95,74 %
25.11.2016 21:38 3,2 C 2,8 C 0,6 C 78 % 0 lf 1020,4 hPa 0,0 l/m 0 min 0 min 5 W/m 14,6 km/h (3 Bft) 95,74 %
25.11.2016 21:40 3,2 C 2,8 C 0,6 C 79 % 0 lf 1020,3 hPa 0,0 l/m 0 min 0 min 5 W/m 10,5 km/h (2 Bft) 95,74 %
25.11.2016 21:42 3,2 C 2,8 C 0,6 C 79 % 0 lf 1020,3 hPa 0,0 l/m 0 min 0 min 5 W/m 12,6 km/h (3 Bft) 91,49 %
25.11.2016 21:44 3,1 C 2,8 C 0,6 C 79 % 0 lf 1020,3 hPa 0,0 l/m 0 min 0 min 5 W/m 14,6 km/h (3 Bft) 89,36 %
25.11.2016 21:46 3,1 C 3,3 C 1,1 C 79 % 0 lf 1020,3 hPa 0,0 l/m 0 min 0 min 5 W/m 14,6 km/h (3 Bft) 91,30 %
25.11.2016 21:48 3,1 C 3,3 C 1,1 C 80 % 0 lf 1020,3 hPa 0,0 l/m 0 min 0 min 5 W/m 14,6 km/h (3 Bft) 91,49 %
25.11.2016 21:50 3,1 C 3,3 C 1,1 C 80 % 0 lf 1020,3 hPa 0,0 l/m 0 min 0 min 5 W/m 14,6 km/h (3 Bft) 95,74 %
25.11.2016 21:52 3,1 C 3,3 C 1,7 C 80 % 0 lf 1020,3 hPa 0,0 l/m 0 min 0 min 5 W/m 18,8 km/h (3 Bft) 91,49 %
25.11.2016 21:54 3,1 C 3,3 C 1,7 C 80 % 0 lf 1020,4 hPa 0,0 l/m 0 min 0 min 5 W/m 16,7 km/h (3 Bft) 91,49 %
25.11.2016 21:56 3,1 C 3,9 C 2,2 C 81 % 0 lf 1020,3 hPa 0,0 l/m 0 min 0 min 5 W/m 14,6 km/h (3 Bft) 91,30 %
25.11.2016 21:58 3,1 C 3,9 C 2,2 C 81 % 0 lf 1020,3 hPa 0,0 l/m 0 min 0 min 5 W/m 14,6 km/h (3 Bft) 93,62 %
25.11.2016 22:00 3,1 C 3,9 C 2,2 C 81 % 0 lf 1020,3 hPa 0,0 l/m 0 min 0 min 5 W/m 10,5 km/h (2 Bft) 91,49 %
25.11.2016 22:02 3,1 C 3,9 C 2,2 C 81 % 0 lf 1020,4 hPa 0,0 l/m 0 min 0 min 5 W/m 10,5 km/h (2 Bft) 93,62 %
25.11.2016 22:04 3,2 C 3,9 C 2,2 C 82 % 0 lf 1020,4 hPa 0,0 l/m 0 min 0 min 5 W/m 12,6 km/h (3 Bft) 89,36 %
25.11.2016 22:06 3,2 C 3,9 C 2,2 C 82 % 0 lf 1020,3 hPa 0,0 l/m 0 min 0 min 5 W/m 12,6 km/h (3 Bft) 93,62 %
25.11.2016 22:08 3,2 C 3,9 C 2,8 C 82 % 0 lf 1020,3 hPa 0,0 l/m 0 min 0 min 5 W/m 14,6 km/h (3 Bft) 91,30 %
25.11.2016 22:10 3,2 C 3,9 C 2,8 C 82 % 0 lf 1020,3 hPa 0,0 l/m 0 min 0 min 5 W/m 16,7 km/h (3 Bft) 93,62 %
25.11.2016 22:12 3,3 C 3,9 C 2,8 C 82 % 0 lf 1020,2 hPa 0,0 l/m 0 min 0 min 5 W/m 14,6 km/h (3 Bft) 91,49 %
25.11.2016 22:14 3,3 C 4,4 C 2,8 C 82 % 0 lf 1020,3 hPa 0,0 l/m 0 min 0 min 5 W/m 12,6 km/h (3 Bft) 93,62 %
25.11.2016 22:16 3,3 C 4,4 C 2,8 C 83 % 0 lf 1020,3 hPa 0,0 l/m 0 min 0 min 0 W/m 10,5 km/h (2 Bft) 91,49 %
25.11.2016 22:18 3,4 C 4,4 C 2,8 C 83 % 0 lf 1020,3 hPa 0,0 l/m 0 min 0 min 0 W/m 14,6 km/h (3 Bft) 95,74 %
25.11.2016 22:20 3,4 C 4,4 C 2,8 C 83 % 0 lf 1020,2 hPa 0,0 l/m 0 min 0 min 0 W/m 16,7 km/h (3 Bft) 93,48 %
25.11.2016 22:22 3,4 C 4,4 C 2,8 C 83 % 0 lf 1020,3 hPa 0,0 l/m 0 min 0 min 0 W/m 6,3 km/h (2 Bft) 93,62 %
25.11.2016 22:24 3,4 C 4,4 C 2,8 C 83 % 0 lf 1020,3 hPa 0,0 l/m 0 min 0 min 0 W/m 8,4 km/h (2 Bft) 95,74 %
25.11.2016 22:26 3,5 C 4,4 C 2,8 C 83 % 0 lf 1020,3 hPa 0,0 l/m 0 min 0 min 0 W/m 6,3 km/h (2 Bft) 95,74 %
25.11.2016 22:28 3,5 C 4,4 C 2,8 C 83 % 0 lf 1020,3 hPa 0,0 l/m 0 min 0 min 5 W/m 8,4 km/h (2 Bft) 93,62 %
25.11.2016 22:30 3,5 C 4,4 C 2,8 C 83 % 0 lf 1020,3 hPa 0,0 l/m 0 min 0 min 5 W/m 10,5 km/h (2 Bft) 93,62 %
25.11.2016 22:32 3,6 C 4,4 C 2,8 C 83 % 0 lf 1020,3 hPa 0,0 l/m 0 min 0 min 5 W/m 8,4 km/h (2 Bft) 93,48 %
25.11.2016 22:34 3,6 C 4,4 C 2,8 C 83 % 0 lf 1020,3 hPa 0,0 l/m 0 min 0 min 5 W/m 6,3 km/h (2 Bft) 95,74 %
25.11.2016 22:36 3,6 C 4,4 C 2,8 C 83 % 0 lf 1020,2 hPa 0,0 l/m 0 min 0 min 5 W/m 10,5 km/h (2 Bft) 92,00 %
25.11.2016 22:38 3,6 C 4,4 C 2,8 C 83 % 0 lf 1020,3 hPa 0,0 l/m 0 min 0 min 5 W/m 14,6 km/h (3 Bft) 97,83 %
25.11.2016 22:40 3,7 C 4,4 C 2,8 C 83 % 0 lf 1020,3 hPa 0,0 l/m 0 min 0 min 5 W/m 12,6 km/h (3 Bft) 97,87 %
25.11.2016 22:42 3,7 C 4,4 C 2,8 C 83 % 0 lf 1020,3 hPa 0,0 l/m 0 min 0 min 5 W/m 8,4 km/h (2 Bft) 95,74 %
25.11.2016 22:44 3,7 C 4,4 C 2,8 C 83 % 0 lf 1020,3 hPa 0,0 l/m 0 min 0 min 5 W/m 12,6 km/h (3 Bft) 95,74 %
25.11.2016 22:46 3,7 C 4,4 C 2,8 C 83 % 0 lf 1020,3 hPa 0,0 l/m 0 min 0 min 5 W/m 8,4 km/h (2 Bft) 95,74 %
25.11.2016 22:48 3,7 C 4,4 C 3,3 C 83 % 0 lf 1020,2 hPa 0,0 l/m 0 min 0 min 5 W/m 14,6 km/h (3 Bft) 97,83 %
25.11.2016 22:50 3,8 C 4,4 C 3,3 C 83 % 0 lf 1020,2 hPa 0,0 l/m 0 min 0 min 5 W/m 12,6 km/h (3 Bft) 97,87 %
25.11.2016 22:52 3,8 C 4,4 C 3,3 C 83 % 0 lf 1020,1 hPa 0,0 l/m 0 min 0 min 5 W/m 6,3 km/h (2 Bft) 93,62 %
25.11.2016 22:54 3,9 C 4,4 C 3,3 C 83 % 0 lf 1020,1 hPa 0,0 l/m 0 min 0 min 5 W/m 10,5 km/h (2 Bft) 93,62 %
25.11.2016 22:56 3,9 C 4,4 C 3,3 C 83 % 0 lf 1020,1 hPa 0,0 l/m 0 min 0 min 5 W/m 12,6 km/h (3 Bft) 97,87 %
25.11.2016 22:58 3,9 C 4,4 C 3,3 C 83 % 0 lf 1020,1 hPa 0,0 l/m 0 min 0 min 5 W/m 8,4 km/h (2 Bft) 100,00 %
25.11.2016 23:00 3,9 C 4,4 C 3,3 C 83 % 0 lf 1020,1 hPa 0,0 l/m 0 min 0 min 5 W/m 10,5 km/h (2 Bft) 95,65 %
25.11.2016 23:02 4,0 C 4,4 C 3,3 C 82 % 0 lf 1020,1 hPa 0,0 l/m 0 min 0 min 5 W/m 8,4 km/h (2 Bft) 97,87 %
25.11.2016 23:04 4,0 C 4,4 C 3,3 C 82 % 0 lf 1020,1 hPa 0,0 l/m 0 min 0 min 5 W/m 10,5 km/h (2 Bft) 95,74 %
25.11.2016 23:06 4,0 C 4,4 C 3,3 C 83 % 0 lf 1020,1 hPa 0,0 l/m 0 min 0 min 5 W/m 10,5 km/h (2 Bft) 100,00 %
25.11.2016 23:08 4,1 C 4,4 C 3,3 C 83 % 0 lf 1020,2 hPa 0,0 l/m 0 min 0 min 5 W/m 10,5 km/h (2 Bft) 97,87 %
25.11.2016 23:10 4,1 C 4,4 C 3,3 C 83 % 0 lf 1020,2 hPa 0,0 l/m 0 min 0 min 5 W/m 10,5 km/h (2 Bft) 93,62 %
25.11.2016 23:12 4,1 C 4,4 C 3,3 C 83 % 0 lf 1020,2 hPa 0,0 l/m 0 min 0 min 5 W/m 16,7 km/h (3 Bft) 97,83 %
25.11.2016 23:14 4,1 C 4,4 C 3,3 C 83 % 0 lf 1020,3 hPa 0,0 l/m 0 min 0 min 5 W/m 14,6 km/h (3 Bft) 100,00 %
25.11.2016 23:16 4,1 C 4,4 C 3,3 C 83 % 0 lf 1020,2 hPa 0,0 l/m 0 min 0 min 5 W/m 14,6 km/h (3 Bft) 97,87 %
25.11.2016 23:18 4,2 C 4,4 C 3,3 C 83 % 0 lf 1020,2 hPa 0,0 l/m 0 min 0 min 5 W/m 12,6 km/h (3 Bft) 97,87 %
25.11.2016 23:20 4,2 C 4,4 C 3,3 C 83 % 0 lf 1020,1 hPa 0,0 l/m 0 min 0 min 5 W/m 14,6 km/h (3 Bft) 100,00 %
25.11.2016 23:22 4,2 C 4,4 C 3,3 C 82 % 0 lf 1020,2 hPa 0,0 l/m 0 min 0 min 5 W/m 10,5 km/h (2 Bft) 93,62 %
25.11.2016 23:24 4,2 C 4,4 C 3,3 C 82 % 0 lf 1020,1 hPa 0,0 l/m 0 min 0 min 5 W/m 12,6 km/h (3 Bft) 97,83 %
25.11.2016 23:26 4,2 C 4,4 C 3,3 C 82 % 0 lf 1020,1 hPa 0,0 l/m 0 min 0 min 5 W/m 14,6 km/h (3 Bft) 95,74 %
25.11.2016 23:28 4,2 C 4,4 C 3,3 C 82 % 0 lf 1020,2 hPa 0,0 l/m 0 min 0 min 5 W/m 18,8 km/h (3 Bft) 97,87 %
25.11.2016 23:30 4,2 C 4,4 C 3,3 C 82 % 0 lf 1020,1 hPa 0,0 l/m 0 min 0 min 5 W/m 10,5 km/h (2 Bft) 97,87 %
25.11.2016 23:32 4,2 C 4,4 C 3,3 C 82 % 0 lf 1020,2 hPa 0,0 l/m 0 min 0 min 5 W/m 14,6 km/h (3 Bft) 97,87 %
25.11.2016 23:34 4,2 C 4,4 C 3,3 C 82 % 0 lf 1020,2 hPa 0,0 l/m 0 min 0 min 5 W/m 14,6 km/h (3 Bft) 95,74 %
25.11.2016 23:36 4,2 C 4,4 C 3,3 C 82 % 0 lf 1020,3 hPa 0,0 l/m 0 min 0 min 5 W/m 10,5 km/h (2 Bft) 97,83 %
25.11.2016 23:38 4,3 C 4,4 C 3,3 C 82 % 0 lf 1020,2 hPa 0,0 l/m 0 min 0 min 5 W/m 10,5 km/h (2 Bft) 97,87 %
25.11.2016 23:40 4,3 C 4,4 C 3,3 C 82 % 0 lf 1020,3 hPa 0,0 l/m 0 min 0 min 5 W/m 12,6 km/h (3 Bft) 97,87 %
25.11.2016 23:42 4,3 C 4,4 C 3,3 C 82 % 0 lf 1020,3 hPa 0,0 l/m 0 min 0 min 5 W/m 16,7 km/h (3 Bft) 97,87 %
25.11.2016 23:44 4,3 C 4,4 C 3,3 C 82 % 0 lf 1020,2 hPa 0,0 l/m 0 min 0 min 5 W/m 14,6 km/h (3 Bft) 94,29 %
25.11.2016 23:46 4,3 C 4,4 C 3,3 C 82 % 0 lf 1020,3 hPa 0,0 l/m 0 min 0 min 5 W/m 14,6 km/h (3 Bft) 94,92 %
25.11.2016 23:48 4,3 C 4,4 C 3,3 C 82 % 0 lf 1020,2 hPa 0,0 l/m 0 min 0 min 5 W/m 16,7 km/h (3 Bft) 94,29 %
25.11.2016 23:50 4,3 C 4,4 C 3,3 C 82 % 0 lf 1020,2 hPa 0,0 l/m 0 min 0 min 5 W/m 14,6 km/h (3 Bft) 94,83 %
25.11.2016 23:52 4,3 C 4,4 C 3,3 C 82 % 0 lf 1020,1 hPa 0,0 l/m 0 min 0 min 5 W/m 16,7 km/h (3 Bft) 95,74 %
25.11.2016 23:54 4,3 C 4,4 C 3,3 C 82 % 0 lf 1020,1 hPa 0,0 l/m 0 min 0 min 5 W/m 14,6 km/h (3 Bft) 97,87 %
25.11.2016 23:56 4,3 C 4,4 C 3,3 C 82 % 0 lf 1020,1 hPa 0,0 l/m 0 min 0 min 5 W/m 16,7 km/h (3 Bft) 97,14 %
25.11.2016 23:58 4,3 C 4,4 C 3,3 C 82 % 0 lf 1020,2 hPa 0,0 l/m 0 min 0 min 5 W/m 12,6 km/h (3 Bft) 95,74 %
_ Min-Zeit 07:26 07:02 20:50 14:22 00:00 14:54 - - - - 20:46 07:58
Minimum _ 2,6 C 2,2 C 0,6 C 65 % 0 lf 1018,8 hPa - - - - 6,3 km/h (2 Bft) 82,98 %
_ Max-Zeit 14:00 13:50 13:50 04:48 00:00 00:12 00:00 08:30 00:00 11:44 06:28 00:02
Maximum _ 8,9 C 16,1 C 7,2 C 93 % 0 lf 1020,6 hPa 0,0 l/m 2 min 0 min 848 W/m 35,6 km/h
O (5 Bft)
100,00 %
Durchschnitt _ 5,0 C 5,8 C 3,1 C 82 % 0 lf 1019,8 hPa #0,0 l/m #6:52 h #0 min. 95 W/m 20,0 km/h (4 Bft) 95,33 %
© 2016 W. Hausmann